GFSFLT1_925_thetae_000.txt.gz
Theta_e
345 347 347 346 345 345 346 347 348 348 349 349 350 352 354 354 355 355 358 349 342 345 337 335 332 334 334 328 326 331 333 332 332
343 346 347 348 346 346 346 347 348 349 350 351 351 352 354 354 356 356 360 343 340 339 336 334 332 332 330 330 328 330 332 330 331
342 343 347 347 348 347 347 347 349 350 350 351 351 352 353 353 356 358 354 332 336 336 334 331 331 330 331 332 330 330 331 330 327
340 340 345 345 348 349 348 348 349 350 351 352 353 352 353 353 355 356 334 330 328 330 333 332 328 331 332 332 332 332 331 328 329
334 338 343 343 347 349 349 348 349 350 351 352 353 352 351 351 353 350 333 332 331 334 335 335 331 332 332 332 334 333 329 328 329
334 338 340 342 344 347 348 347 349 350 351 352 352 351 350 347 347 343 335 333 331 334 334 328 330 329 331 332 331 329 328 329 329
333 336 339 341 342 343 344 344 346 349 350 351 351 349 348 345 345 344 336 333 331 331 331 328 328 331 332 331 329 329 330 329 329
335 333 334 339 341 341 341 342 343 346 348 349 350 348 345 346 346 341 335 335 335 335 335 335 334 333 332 331 329 330 331 331 331
337 336 334 334 337 338 339 340 341 345 347 348 349 347 345 343 340 338 337 338 334 339 339 338 336 335 333 331 330 330 331 332 332
336 335 335 333 332 334 335 337 340 343 346 348 349 347 345 343 340 338 337 337 333 339 341 337 335 334 333 332 331 330 331 331 330
331 332 334 332 331 333 335 336 338 341 344 347 349 347 346 343 341 337 338 335 335 338 335 333 333 333 333 331 332 332 332 332 332
329 331 333 335 334 334 335 337 339 341 344 346 348 347 345 342 340 338 338 333 333 335 333 333 333 333 333 332 331 332 333 330 331
327 328 330 332 336 337 340 341 343 344 344 346 346 345 345 343 341 339 334 332 335 334 334 334 333 333 333 331 332 333 331 331 330
331 334 336 338 340 342 342 342 345 345 344 344 344 344 343 342 342 336 337 336 335 333 333 332 331 329 328 328 326 330 332 329 330
333 333 335 338 340 342 344 345 345 342 341 341 342 342 341 340 341 339 337 335 333 331 330 330 330 327 327 324 323 331 329 330 329
335 336 337 342 343 342 342 342 342 340 339 340 340 339 339 338 337 336 335 333 331 330 330 329 327 328 326 327 329 327 328 329 326
336 336 337 340 340 338 336 337 338 339 338 339 339 337 334 333 329 329 327 327 326 327 327 327 327 328 330 329 327 327 326 324 321
336 334 336 338 337 336 335 336 338 338 339 339 338 334 333 332 331 332 330 328 328 327 327 330 330 331 330 328 326 325 322 319 317
335 335 337 336 336 337 336 337 338 337 338 338 337 334 332 329 328 327 327 326 325 329 331 330 330 328 326 324 323 321 319 318 315
335 337 338 336 335 336 335 334 334 334 334 335 333 332 328 326 323 324 326 325 323 320 322 326 323 320 320 320 320 318 314 312 311

GFSFLT1_925_thetae_003.txt.gz
Theta_e
347 348 348 348 349 350 349 349 350 351 351 352 354 354 354 356 356 356 357 355 351 348 346 346 340 334 332 335 334 328 330 334 334
349 348 349 349 349 348 349 349 350 351 351 351 353 354 354 356 356 357 356 355 355 349 343 343 336 332 332 334 327 327 332 331 329
348 349 350 350 351 350 349 350 350 351 351 352 352 354 355 355 357 357 356 356 357 348 342 339 335 331 332 330 330 327 329 332 331
347 350 351 352 352 349 350 350 350 351 352 352 353 354 354 355 356 356 355 356 358 351 340 338 334 331 330 332 332 331 330 331 331
344 349 352 351 351 350 349 350 350 351 352 352 353 353 354 355 355 352 348 352 353 335 335 335 332 331 331 331 335 335 335 334 331
344 347 349 350 350 352 351 351 352 351 352 352 353 353 354 354 352 350 351 352 347 331 329 333 333 331 331 331 335 336 337 333 332
344 344 349 350 351 355 354 353 353 352 352 352 353 353 354 353 350 349 345 343 336 331 333 335 335 332 331 331 333 334 333 332 329
343 344 347 350 351 356 355 354 353 352 352 352 353 354 354 352 349 346 341 339 334 332 324 328 334 329 327 330 332 332 330 331 333
345 344 344 348 349 350 351 350 350 350 351 352 353 354 353 350 347 343 340 337 335 329 328 331 330 334 330 332 333 331 330 331 335
347 346 344 345 347 348 347 347 347 347 348 350 351 352 351 348 345 342 339 337 334 332 333 334 332 332 335 335 334 332 331 331 332
344 345 344 343 340 342 343 342 343 345 347 350 351 351 350 347 344 343 341 339 336 335 332 331 334 336 337 336 336 334 333 333 332
338 339 342 343 339 340 341 340 342 345 347 349 350 350 350 346 343 343 342 340 338 335 334 335 335 336 334 335 335 333 332 330 330
337 339 342 342 342 341 343 343 343 346 347 348 350 350 349 346 343 342 341 341 341 338 337 335 335 335 333 334 333 332 331 326 327
342 341 343 343 344 344 345 347 347 349 349 350 350 349 348 345 344 343 342 341 340 337 336 335 334 334 334 334 332 331 330 328 328
343 344 345 346 347 349 347 348 349 350 350 349 348 348 344 344 343 342 341 340 337 337 337 337 337 336 336 331 331 327 325 324 327
345 348 348 346 346 348 347 347 348 347 345 343 344 344 343 343 342 339 338 337 336 336 336 335 335 334 332 332 330 326 328 330 329
344 345 347 348 349 348 346 344 343 344 342 344 343 342 341 341 342 340 338 337 335 334 334 332 330 330 332 334 330 328 323 323 323
347 347 345 347 348 348 347 344 344 343 343 343 343 343 343 342 341 338 337 334 332 332 332 329 332 332 332 334 332 328 324 322 320
347 347 347 347 347 345 343 343 342 342 342 343 343 342 341 339 336 334 332 328 325 327 328 328 331 331 331 327 328 325 323 320 318
336 337 341 347 346 344 343 342 341 341 340 339 339 337 337 335 335 334 333 329 328 328 321 325 325 324 324 324 324 321 318 314 312

GFSFLT1_925_thetae_006.txt.gz
Theta_e
348 350 347 348 349 349 350 351 352 354 355 359 360 360 360 360 360 359 357 355 349 345 343 341 342 349 343 340 339 339 335 334 334
346 350 349 347 349 348 349 351 352 354 356 358 359 359 360 361 361 360 355 353 354 348 346 341 345 346 343 337 339 336 334 333 334
346 349 350 348 348 348 349 350 351 354 355 357 358 358 359 359 359 360 358 356 355 350 349 347 344 344 339 337 337 335 335 333 333
344 348 351 350 349 347 349 349 350 353 355 356 358 358 357 357 357 357 359 358 358 356 354 348 345 343 338 337 336 336 336 334 332
336 345 349 351 351 349 349 350 349 350 352 355 356 356 358 357 357 356 357 359 358 355 355 346 345 342 339 337 336 336 337 335 332
342 347 350 352 352 353 352 351 351 351 353 354 354 356 357 357 356 357 357 358 356 355 349 335 337 324 331 338 337 336 337 337 336
343 349 351 353 353 354 353 353 355 355 353 353 354 355 357 358 357 356 357 356 352 350 338 330 333 323 325 329 338 337 337 336 336
343 350 351 353 354 359 362 357 356 356 355 354 354 355 356 358 358 358 356 354 349 346 330 331 323 325 327 330 338 337 335 335 334
343 350 351 353 355 357 359 357 357 357 357 356 356 357 357 357 359 358 355 351 346 343 334 330 325 325 328 333 335 332 332 333 334
343 349 350 352 354 355 357 356 357 357 356 356 356 357 358 358 358 356 353 350 347 342 335 331 333 334 334 334 336 334 333 332 332
343 348 350 351 351 354 353 352 353 353 354 355 355 357 357 357 356 354 352 349 346 343 337 334 337 338 337 336 336 337 337 334 334
345 348 350 350 348 350 350 349 350 350 351 353 354 355 355 355 353 352 349 348 347 345 341 338 340 340 339 338 338 339 338 336 335
341 346 347 348 345 347 347 346 347 349 350 352 354 354 354 354 351 351 349 348 347 344 343 341 340 340 339 339 340 338 337 335 335
344 347 348 346 345 345 346 345 347 348 349 351 352 353 354 352 351 351 350 348 346 345 343 341 342 340 339 339 336 338 336 332 333
349 348 345 343 347 349 348 348 350 351 352 353 354 354 353 351 350 349 349 347 344 342 341 342 341 340 340 339 340 339 338 333 330
345 344 345 344 348 350 351 352 352 354 357 354 354 352 349 349 349 347 345 343 341 341 341 341 340 340 340 339 339 334 332 329 328
347 348 347 345 346 350 352 352 352 354 350 351 351 350 350 348 346 346 343 343 342 343 342 340 340 339 336 334 335 333 329 328 328
348 348 346 344 346 350 352 351 351 350 349 348 349 348 348 345 344 343 344 340 338 339 336 335 336 335 332 332 334 334 331 329 327
349 350 349 349 349 351 351 351 350 350 349 349 348 346 345 344 344 343 343 338 333 332 331 328 329 332 333 332 332 330 327 324 323
336 341 344 350 349 349 349 349 349 349 348 347 345 344 343 342 340 339 339 338 335 332 325 328 327 328 328 325 326 324 322 320 316

GFSFLT1_925_thetae_009.txt.gz
Theta_e
341 349 350 347 349 352 354 353 356 357 360 366 366 364 363 362 361 357 354 353 352 348 346 345 350 350 347 344 341 341 340 337 336
338 345 349 348 347 348 351 351 355 357 360 364 365 362 365 364 362 360 354 352 352 352 346 344 343 348 346 344 339 341 339 335 337
338 341 348 349 348 347 348 350 353 356 359 363 362 362 364 363 363 363 360 359 356 353 348 345 344 348 346 343 338 341 338 335 335
338 340 346 349 348 347 347 348 350 354 357 359 362 361 361 361 361 361 362 360 358 357 351 351 346 348 345 340 339 338 337 337 336
337 339 344 348 349 348 348 349 348 350 352 354 359 360 361 362 361 361 361 362 361 358 354 353 349 347 345 339 339 338 338 338 336
339 339 342 347 349 350 351 349 349 348 351 350 353 357 360 361 361 362 361 362 361 360 359 355 351 347 346 340 338 338 338 338 338
339 340 346 346 350 353 355 352 352 350 349 348 350 354 355 359 361 361 361 361 361 361 359 357 351 346 345 340 339 338 339 338 338
336 337 348 350 352 360 362 358 356 354 351 351 351 354 355 358 362 361 360 359 362 362 360 357 351 345 342 341 338 338 339 337 337
336 336 339 351 353 355 363 362 361 359 356 356 354 358 358 360 364 363 362 361 362 361 358 355 349 343 339 336 335 335 336 337 335
337 338 339 349 353 356 360 357 360 361 360 357 358 360 362 362 366 365 365 363 361 359 355 352 345 340 335 334 336 336 335 332 335
339 341 341 345 350 355 358 356 357 358 359 362 363 364 363 364 365 366 365 363 359 355 352 350 345 339 335 337 338 337 335 333 334
337 338 339 345 350 353 359 357 359 361 360 361 362 362 363 363 363 364 362 360 357 353 351 350 344 339 337 340 341 340 337 336 336
342 342 339 349 350 353 357 358 357 359 358 359 360 360 360 361 361 360 359 357 355 352 351 348 345 341 341 343 343 341 338 338 338
343 343 349 351 352 358 358 356 355 358 356 356 355 356 357 359 358 358 356 354 353 352 350 347 344 342 343 343 343 342 340 339 337
345 347 351 350 355 355 353 353 355 357 357 355 356 356 357 358 357 355 354 352 352 351 347 346 346 344 345 344 343 341 340 337 337
352 351 352 350 350 353 350 353 354 358 359 357 357 357 358 356 353 352 352 352 351 347 346 344 344 343 344 344 342 340 338 337 334
348 347 351 348 350 355 356 354 354 360 359 358 358 356 353 352 351 350 348 348 346 343 343 343 344 344 344 343 341 338 334 330 329
348 348 349 348 350 353 354 354 356 354 355 356 354 354 353 350 348 347 345 341 341 342 338 340 341 341 341 338 334 333 332 330 329
347 348 347 350 349 352 353 354 354 353 353 353 352 351 350 348 346 345 343 339 332 333 333 333 333 333 334 332 332 333 333 330 327
341 346 346 347 348 350 352 353 353 351 351 352 351 347 346 344 344 344 344 341 340 337 329 328 328 328 330 330 329 330 329 328 326

GFSFLT1_925_thetae_012.txt.gz
Theta_e
349 351 350 351 351 353 355 354 356 359 363 366 366 364 366 362 358 361 358 354 353 353 350 347 350 346 347 345 342 340 342 340 336
345 351 351 350 353 352 355 354 356 358 364 367 368 367 366 365 361 362 362 355 354 356 349 349 351 347 351 345 344 342 341 339 337
341 340 351 351 350 353 354 355 355 358 361 367 369 368 367 366 367 362 358 355 353 352 354 346 350 349 349 347 343 341 341 338 339
341 341 345 350 350 350 353 355 356 358 359 365 368 368 367 366 366 365 360 362 356 359 351 351 350 350 349 347 345 341 341 337 335
341 341 344 347 351 350 351 353 354 357 360 363 366 367 366 366 366 366 365 361 363 359 359 354 346 348 349 347 345 340 341 337 338
344 344 347 348 349 351 351 351 353 356 358 360 365 365 365 366 365 366 365 365 361 364 359 356 353 350 349 349 343 342 341 337 337
343 347 350 352 350 354 352 351 352 354 357 358 361 363 364 364 365 365 364 365 365 362 362 360 357 353 351 350 344 342 339 341 341
343 347 351 352 354 358 355 354 353 353 353 354 355 360 362 364 365 364 364 364 365 365 363 363 360 357 353 351 346 343 343 342 342
344 344 345 354 356 364 365 358 355 353 352 352 353 355 359 361 363 365 364 364 363 365 364 365 362 359 353 351 346 340 339 340 342
345 344 344 354 357 358 362 360 357 354 352 353 352 355 357 358 361 364 365 364 364 364 365 364 362 360 353 350 345 338 335 338 339
342 343 343 344 348 357 357 359 358 357 355 354 354 359 359 360 363 366 366 365 365 365 365 364 361 358 352 345 340 337 336 335 335
337 338 347 344 338 354 356 358 357 361 359 357 362 360 368 363 371 370 369 368 367 366 364 360 356 353 347 339 338 337 337 337 335
335 335 338 344 339 355 361 360 359 361 364 362 360 365 365 368 369 371 370 368 366 361 357 354 353 349 344 339 338 340 340 339 336
343 337 340 345 356 361 363 361 362 364 364 366 364 366 366 367 367 368 367 365 360 356 353 353 350 346 343 341 338 342 343 341 337
351 345 346 359 364 367 365 362 364 367 367 366 365 365 366 366 365 363 361 357 354 354 352 350 347 345 343 342 343 342 342 341 339
348 347 360 356 365 366 363 364 364 366 364 361 362 362 364 363 361 359 357 354 353 352 350 348 346 347 346 344 342 342 341 340 338
358 358 360 359 360 364 364 362 362 364 363 362 363 363 361 358 354 354 353 353 352 349 348 346 346 346 345 343 343 341 338 338 336
359 358 359 358 360 363 364 365 363 362 363 362 358 356 354 352 350 350 349 346 347 345 343 344 345 343 342 341 341 340 336 331 330
356 357 356 357 358 359 359 358 359 360 359 356 355 354 352 349 348 346 341 338 335 338 338 336 336 338 340 338 335 333 331 330 330
346 348 352 355 357 357 357 356 355 355 356 356 354 351 350 349 347 346 343 339 336 331 328 329 330 330 332 333 330 333 333 330 327

GFSFLT1_925_thetae_015.txt.gz
Theta_e
345 346 343 342 346 348 350 352 356 360 361 360 361 362 359 355 359 357 353 351 358 354 353 354 351 351 349 347 340 342 341 341 339
346 342 342 344 345 347 350 351 357 358 363 362 363 363 362 360 356 358 356 353 351 355 354 355 354 349 348 346 343 336 343 341 339
343 342 343 344 344 347 350 352 355 357 363 363 364 362 364 362 360 357 356 358 355 353 353 350 350 350 348 346 344 341 339 341 339
342 343 342 345 346 348 351 352 355 357 361 364 364 364 363 364 362 361 357 358 360 352 354 351 349 350 347 347 345 341 341 341 339
339 337 343 345 346 347 352 352 353 357 363 364 364 365 365 365 364 363 362 359 359 355 353 353 351 350 348 348 347 343 340 341 340
339 338 339 346 345 348 352 353 352 356 361 365 365 366 366 365 364 366 364 361 359 357 354 353 353 350 349 348 347 345 342 339 340
338 342 338 342 346 349 350 353 353 354 358 364 366 367 367 366 365 364 364 364 360 359 363 357 356 352 350 348 347 346 343 341 340
336 338 340 343 346 346 349 352 353 354 356 358 364 366 366 365 365 364 365 364 364 361 360 362 359 356 351 349 348 347 345 340 339
333 334 346 347 347 346 347 348 351 353 355 357 360 364 364 364 364 364 364 364 364 365 363 361 362 358 354 352 351 349 346 342 341
334 335 342 345 345 348 347 348 350 352 355 356 358 360 363 363 362 363 363 364 363 364 365 363 364 361 358 355 352 350 345 343 341
334 336 339 345 347 351 351 351 350 352 353 355 356 356 360 361 362 362 364 364 364 363 365 364 364 363 361 358 353 350 345 341 341
328 330 332 332 344 349 357 353 351 351 351 353 353 354 356 359 360 362 363 364 364 364 364 365 364 363 360 356 351 348 340 335 336
330 331 330 330 334 344 352 357 354 352 351 353 351 352 355 357 358 361 364 364 364 365 365 364 362 360 357 353 348 342 341 336 334
344 341 330 332 339 349 352 357 357 354 353 352 355 352 361 360 362 366 366 366 367 366 362 361 358 355 350 347 346 342 339 337 337
342 342 349 337 351 351 356 358 360 360 358 356 356 364 366 370 370 369 368 368 363 360 357 353 351 349 346 345 342 341 338 341 342
343 353 361 362 363 364 366 362 363 365 368 364 365 368 368 367 367 365 365 358 355 353 353 351 348 346 344 344 343 343 342 342 341
357 357 360 361 362 362 363 366 366 366 365 365 365 364 361 361 359 357 355 353 352 351 350 348 347 345 344 344 343 341 341 340 339
354 354 355 360 362 363 363 364 364 363 363 362 360 357 355 354 354 352 351 350 349 349 348 345 344 345 345 343 342 342 340 335 336
340 340 356 360 360 361 362 362 361 359 359 358 354 351 350 349 345 343 344 342 340 342 343 342 344 345 342 342 340 339 335 329 328
332 334 347 356 356 356 357 358 357 356 355 355 352 350 348 346 343 341 339 338 337 330 330 333 335 341 340 337 337 335 331 329 329

GFSFLT1_925_thetae_021.txt.gz
Theta_e
341 342 342 343 343 343 345 346 349 350 350 352 353 353 352 352 352 351 350 350 350 349 349 351 353 354 352 351 350 347 344 339 338
341 341 341 342 342 342 344 345 347 350 349 350 354 354 354 353 352 351 351 351 351 351 346 352 353 353 353 352 351 348 344 337 338
339 340 340 341 341 342 343 344 345 349 350 350 351 354 354 353 353 353 352 352 352 350 346 352 351 352 353 351 351 349 346 337 337
340 339 339 340 341 341 342 344 345 348 351 350 350 353 354 353 353 353 353 353 352 350 349 353 353 353 353 350 350 350 346 340 336
339 340 339 339 340 340 341 344 344 348 350 351 351 352 353 353 353 354 354 353 353 350 350 352 353 354 353 351 351 352 347 343 338
336 338 339 338 335 336 339 343 345 349 351 352 352 353 354 354 353 353 354 354 353 352 351 354 352 353 353 351 351 351 348 345 341
336 339 339 336 334 336 339 343 346 348 351 353 353 354 355 355 355 354 353 353 354 354 353 354 354 354 353 353 352 351 349 346 344
333 338 339 335 338 336 338 342 346 348 351 354 354 355 356 356 356 356 355 355 354 353 353 354 353 354 354 352 351 351 349 347 346
331 333 339 337 338 338 339 341 345 347 351 353 355 355 356 356 357 357 357 357 356 355 354 354 354 353 353 353 351 351 350 348 347
326 331 332 330 336 337 338 341 345 346 350 352 356 357 357 357 357 358 358 358 358 357 355 355 354 354 353 354 354 353 352 350 348
326 328 328 328 331 332 337 341 345 346 349 352 355 357 358 358 358 358 359 359 359 358 357 356 355 355 354 354 354 354 353 352 348
321 324 327 327 332 335 338 341 345 347 349 351 356 357 358 359 360 359 359 359 359 360 359 356 356 356 356 356 355 357 358 354 347
322 321 322 327 333 338 339 342 345 348 348 351 356 357 358 359 360 360 360 360 359 360 360 359 357 357 357 357 357 357 357 356 348
331 328 322 323 330 339 340 343 347 348 348 350 353 356 358 359 361 361 360 360 360 360 360 360 359 359 358 359 360 358 356 354 350
343 350 352 349 324 322 338 342 345 347 348 350 351 353 356 359 360 361 360 360 360 360 360 360 360 356 357 360 359 355 351 352 348
336 337 345 352 352 344 339 332 344 343 347 349 350 352 354 355 358 359 359 359 360 360 360 360 353 352 351 346 350 349 349 347 345
332 329 329 337 341 344 337 341 349 347 345 345 348 350 352 353 357 358 358 359 360 360 360 356 352 351 347 344 347 347 343 341 339
330 330 328 328 336 336 333 335 337 340 351 350 346 348 350 351 354 357 359 357 359 359 355 353 350 347 346 343 339 341 342 340 338
331 331 330 330 330 331 333 333 335 340 346 357 351 349 354 355 356 343 338 339 338 345 347 348 348 348 346 344 342 342 342 341 341
332 340 339 337 332 333 335 335 333 334 335 354 359 358 351 345 341 340 343 343 341 337 337 340 339 332 344 343 342 342 341 340 337

GFSFLT1_925_thetae_024.txt.gz
Theta_e
343 345 347 347 345 344 344 345 346 348 349 349 349 349 349 349 348 348 348 348 347 345 346 350 350 352 352 351 351 350 348 343 340
338 340 343 345 345 344 344 345 346 348 349 349 349 349 349 349 349 349 349 349 348 347 348 347 350 349 351 352 352 351 349 344 341
338 338 340 342 342 343 343 344 346 347 349 349 349 350 350 350 350 349 349 350 350 349 349 349 348 347 351 353 353 351 350 346 344
337 338 338 339 340 341 342 343 344 347 348 349 349 351 351 351 350 350 350 350 351 351 350 350 350 347 350 351 353 352 351 348 345
336 336 337 339 339 340 341 341 343 345 348 348 348 351 352 352 351 351 350 350 351 351 350 351 351 346 350 351 351 352 351 349 347
330 336 337 336 337 338 339 340 342 343 346 348 348 349 352 352 352 351 351 351 351 351 351 351 351 348 350 352 352 352 351 349 349
327 331 334 336 336 337 339 340 341 343 345 347 348 348 350 352 352 352 351 351 351 351 351 351 351 350 351 352 353 352 351 350 350
329 333 336 335 336 336 336 339 341 343 345 347 349 349 349 351 351 352 352 352 352 351 351 351 351 350 351 352 351 352 351 350 350
323 329 333 336 336 336 337 339 342 343 345 348 349 350 350 351 352 351 351 351 352 352 352 352 352 351 350 352 351 350 351 352 351
319 321 324 333 336 336 336 338 341 343 345 348 350 351 351 352 352 353 353 352 352 352 352 352 353 352 351 351 352 352 352 351 351
319 320 325 329 333 335 336 337 339 341 344 348 351 351 352 353 353 354 354 354 354 353 352 352 352 352 352 351 351 351 352 352 351
319 320 322 325 328 331 335 336 337 341 344 349 351 353 353 353 354 355 355 355 355 355 354 353 352 352 351 352 351 351 351 351 349
319 319 320 323 325 327 329 333 338 342 344 348 350 353 354 354 355 355 355 356 356 356 356 355 354 353 353 354 352 352 352 352 350
334 330 328 322 328 331 334 335 339 343 344 347 349 351 354 355 356 356 356 356 357 357 357 356 355 354 353 354 354 353 353 353 351
348 350 352 347 331 329 330 339 341 344 345 346 348 351 354 355 356 357 357 357 357 357 358 358 357 355 354 354 355 355 354 355 352
333 340 344 349 345 340 342 345 343 340 343 345 347 350 353 356 357 358 358 358 358 358 358 358 358 356 355 353 353 354 355 354 354
330 329 329 340 340 336 333 340 345 346 351 350 346 347 350 353 357 358 359 359 359 359 359 358 357 357 356 353 345 348 352 351 348
335 335 332 329 331 333 332 334 334 334 339 353 356 347 346 350 354 357 359 358 357 359 359 358 359 355 353 345 343 341 340 339 341
338 336 334 334 335 335 334 334 336 338 337 334 352 356 344 348 352 355 348 340 340 356 356 358 351 344 340 337 337 338 344 344 341
334 336 337 335 332 338 336 337 337 334 336 336 344 356 350 348 351 344 339 343 342 334 339 342 338 331 330 332 330 331 335 341 339

GFSFLT1_925_thetae_027.txt.gz
Theta_e
350 351 351 352 354 353 352 351 350 350 350 351 351 351 351 351 351 352 351 350 351 352 351 351 351 348 349 349 349 350 350 348 346
347 350 351 351 353 352 351 352 350 350 350 351 351 351 351 351 351 351 352 350 349 351 351 351 353 347 349 350 351 351 351 348 346
341 342 348 350 352 351 350 349 350 350 350 351 352 352 351 351 351 351 351 351 350 350 350 350 351 351 351 350 350 352 351 350 347
338 340 342 345 349 350 350 348 349 350 351 352 352 352 352 351 352 351 351 351 351 350 350 350 351 351 350 352 349 352 352 351 348
337 341 343 343 344 346 347 349 348 349 350 351 352 352 352 352 352 352 352 352 351 350 350 350 350 351 351 353 351 351 352 351 349
335 338 341 344 343 346 348 348 348 348 349 350 351 352 353 353 353 353 352 352 352 351 351 351 351 352 353 353 353 352 350 351 351
333 336 343 344 344 348 347 346 347 347 348 349 350 351 352 353 354 353 353 353 352 352 352 352 352 351 351 352 353 352 351 350 352
332 334 337 340 344 349 351 347 347 346 347 349 349 351 352 354 354 354 354 353 353 353 353 352 352 352 352 352 352 351 352 351 352
335 332 335 340 346 346 348 349 347 346 347 348 350 351 351 352 354 355 355 354 354 353 354 353 354 354 353 353 352 351 351 350 351
335 334 335 337 344 346 347 345 346 346 347 347 350 351 352 352 354 355 355 355 355 354 355 354 354 354 354 354 353 350 349 349 351
334 334 334 337 333 339 344 342 342 345 346 348 350 351 352 353 353 355 355 355 355 355 355 355 355 354 354 354 353 351 348 348 350
332 334 334 334 331 333 339 342 343 345 348 350 351 352 353 353 353 355 355 355 355 355 356 356 356 355 355 354 354 352 350 348 350
328 328 330 332 330 333 336 342 342 345 348 350 353 353 353 353 354 355 356 356 356 356 355 356 356 356 355 354 354 353 351 350 350
333 334 331 328 329 333 338 338 339 347 347 351 351 352 354 355 356 356 356 357 357 357 357 357 356 356 355 355 353 355 351 351 350
357 357 352 330 334 340 345 345 343 348 352 350 351 352 354 357 357 356 356 357 356 358 358 358 358 357 356 356 355 353 353 352 351
356 357 354 349 348 349 348 349 349 351 351 350 352 353 355 357 358 358 358 359 359 359 358 358 358 357 355 355 353 355 353 353 351
347 350 351 346 345 347 348 349 351 352 354 354 352 355 356 357 359 359 360 359 359 358 358 355 352 357 356 355 354 353 350 351 350
340 340 340 342 344 344 343 343 342 341 341 353 359 354 353 356 357 358 360 360 360 359 357 358 359 359 357 357 349 343 342 339 336
341 341 341 341 341 340 340 341 341 340 340 339 346 351 353 352 353 355 358 361 354 359 359 358 357 359 358 354 349 340 343 346 338
336 339 339 340 343 343 343 343 343 343 343 342 343 344 347 350 350 352 359 347 352 345 345 355 355 356 356 354 341 339 336 334 333

GFSFLT1_925_thetae_030.txt.gz
Theta_e
345 350 352 353 354 353 353 351 352 352 354 357 357 356 358 358 358 356 357 356 354 354 351 351 351 355 356 357 357 357 357 357 354
337 347 352 353 353 353 353 354 354 355 355 358 358 357 358 359 358 357 354 355 357 354 354 352 353 354 357 356 357 357 358 356 355
338 345 351 352 353 353 353 354 354 355 356 357 358 357 357 358 358 358 357 357 357 356 354 355 353 356 356 356 357 358 358 355 355
338 343 349 350 351 351 352 353 354 355 356 357 357 357 358 358 357 357 358 357 357 357 356 356 357 356 356 355 357 358 359 357 354
337 340 342 344 347 349 350 352 353 354 355 355 356 357 359 359 358 358 357 358 358 358 357 357 357 357 357 356 356 357 358 358 354
335 336 340 343 343 345 349 350 351 352 354 354 354 357 357 358 358 358 358 359 358 358 358 358 357 358 359 358 356 356 357 357 357
333 336 338 340 342 344 346 348 352 354 351 352 352 354 356 358 360 359 359 359 359 359 358 359 358 358 360 358 357 356 356 356 356
332 334 335 338 346 347 350 349 352 355 352 351 352 355 355 358 359 360 359 359 359 359 359 359 359 359 359 359 357 356 357 356 355
331 332 331 332 338 344 348 350 351 351 355 352 352 355 356 357 359 361 360 360 360 360 360 360 360 359 360 360 358 355 354 355 354
330 332 333 334 337 340 346 348 349 350 354 353 353 355 358 358 360 361 361 361 361 361 360 360 360 360 360 360 359 356 354 352 353
330 331 332 334 334 335 339 343 340 347 349 353 355 357 358 359 360 362 362 362 362 362 361 361 362 361 361 361 360 358 355 353 352
331 333 334 334 333 333 334 336 339 341 348 351 354 357 359 359 360 360 361 363 363 362 362 361 361 360 361 362 361 359 357 354 352
330 332 333 333 331 332 334 338 340 343 347 350 355 356 358 358 359 359 360 362 362 361 361 360 360 360 360 361 361 361 358 356 353
338 337 336 334 335 335 336 341 343 345 347 350 353 354 354 357 359 360 360 362 362 362 361 360 361 361 360 361 361 360 359 356 353
343 340 345 348 342 336 336 343 342 346 355 351 353 354 355 358 360 359 358 362 363 362 362 362 361 360 361 360 361 360 359 358 354
339 344 349 351 338 341 349 351 348 349 352 352 352 355 357 358 360 361 360 363 364 362 362 360 360 358 361 359 361 360 358 357 356
349 353 357 354 349 350 354 356 356 357 357 355 355 356 357 358 360 361 361 360 361 360 359 361 360 361 362 360 361 361 359 354 354
351 351 349 350 352 353 352 352 352 353 357 361 357 358 359 360 360 360 362 362 360 360 360 360 361 361 359 359 359 359 358 353 350
347 348 347 347 347 347 347 346 346 346 346 348 351 355 355 354 354 356 359 360 362 359 360 360 360 360 356 353 355 358 357 347 350
340 345 346 348 348 348 348 348 347 342 344 348 349 349 349 349 350 349 350 354 357 359 359 360 359 359 359 356 358 358 354 349 349

GFSFLT1_925_thetae_033.txt.gz
Theta_e
342 345 350 353 354 354 353 351 352 353 358 362 363 362 361 360 360 358 355 354 352 351 350 349 349 357 357 357 358 359 358 359 358
341 345 349 351 353 354 354 353 355 355 357 361 363 361 362 363 362 360 358 357 356 357 354 350 351 356 359 357 357 358 358 357 359
339 341 347 350 352 354 355 354 354 356 357 361 362 360 362 363 363 363 360 360 361 358 357 355 355 354 356 358 358 358 359 356 357
338 339 344 349 352 352 354 354 354 356 358 361 363 362 362 362 363 363 363 361 361 361 360 360 355 358 357 358 358 358 360 357 355
337 339 342 348 352 351 352 353 354 356 357 358 362 362 362 362 363 363 363 364 361 362 362 361 361 359 360 359 359 359 360 360 353
338 340 343 348 349 351 352 352 354 355 357 357 357 360 362 364 363 364 363 363 364 362 363 363 361 362 362 361 360 359 361 361 360
337 338 340 343 344 346 351 351 356 357 356 356 357 358 359 361 364 363 363 363 364 364 363 364 363 362 363 363 362 360 360 361 361
336 337 338 339 342 346 349 354 356 357 355 356 356 358 359 361 363 364 364 364 364 364 364 364 364 363 363 364 364 361 361 360 360
333 333 333 334 336 342 347 351 356 356 358 356 356 359 359 361 363 365 366 366 365 366 365 365 365 365 364 364 364 360 359 360 361
333 333 333 333 334 336 344 345 348 352 358 358 355 358 361 361 363 366 367 367 367 366 367 366 366 365 365 365 364 362 358 357 360
333 333 333 333 333 335 337 337 342 349 351 359 359 359 360 361 362 366 367 368 368 368 367 367 367 367 366 366 365 364 360 357 356
332 333 333 333 333 333 335 335 338 342 350 354 360 362 361 361 364 365 367 368 368 368 368 367 367 367 367 366 366 365 363 360 356
337 333 333 334 332 333 334 335 336 336 341 349 360 360 362 362 364 365 367 368 368 368 368 367 366 366 366 366 366 365 364 362 359
345 345 344 340 339 338 337 337 337 345 344 347 352 357 360 363 364 366 366 366 368 369 369 366 367 366 366 366 365 366 364 363 361
346 348 346 342 342 346 347 340 341 352 355 351 354 356 359 362 364 364 364 366 368 370 369 368 367 367 367 366 366 365 365 364 361
349 349 346 338 341 350 342 343 345 352 354 357 357 360 363 363 365 366 364 367 369 368 368 366 367 366 368 367 366 366 365 362 363
349 349 350 352 353 352 348 353 356 354 354 357 358 363 364 365 366 367 365 363 365 365 364 365 365 364 365 364 364 363 365 363 361
349 352 355 353 356 357 358 360 362 362 363 360 360 360 360 361 361 363 365 365 360 362 362 361 362 363 361 361 362 361 362 364 363
353 351 351 353 353 353 353 352 353 353 353 360 363 362 362 361 359 360 362 362 364 362 361 360 360 360 359 360 361 360 359 360 360
347 350 349 352 353 352 352 351 348 348 352 353 354 355 356 354 352 352 353 357 358 359 359 360 359 359 359 359 358 359 359 357 358

GFSFLT1_925_thetae_036.txt.gz
Theta_e
346 350 350 355 357 355 352 351 353 355 361 362 362 361 361 357 360 359 350 357 352 347 352 353 356 353 357 356 355 355 358 358 357
344 346 348 354 356 356 353 351 353 354 358 362 363 361 363 362 356 362 359 355 355 355 349 353 351 354 357 355 357 358 356 357 360
342 344 347 353 355 357 354 352 352 353 357 361 363 363 362 364 361 361 361 358 356 354 356 350 354 357 356 359 356 360 358 360 356
341 344 347 351 356 355 356 354 354 354 355 361 363 364 364 363 364 361 360 361 359 361 355 360 352 362 358 358 360 359 360 359 358
340 343 348 349 353 355 357 357 355 355 356 359 363 365 364 363 363 364 363 360 361 362 364 357 362 356 358 361 359 360 360 361 357
341 345 345 348 352 354 357 357 357 357 357 357 362 364 365 364 363 363 364 364 361 362 362 364 361 363 361 359 361 360 361 361 361
341 346 346 349 352 354 356 356 358 358 358 358 358 363 365 364 364 364 364 364 365 362 362 363 363 363 363 364 362 362 361 362 363
343 347 347 351 352 356 357 357 358 358 358 358 358 359 363 364 364 364 364 365 365 366 364 363 364 364 364 363 365 363 362 362 363
342 342 342 343 347 348 354 359 360 358 358 359 359 359 361 363 364 364 366 365 365 366 367 366 365 366 365 364 365 365 363 362 362
335 334 334 335 340 344 350 348 358 361 360 359 360 360 362 362 363 364 365 366 366 366 367 367 367 367 366 365 365 365 364 362 362
335 335 337 342 336 340 342 342 344 352 360 359 359 362 362 364 364 365 366 367 368 368 367 368 368 368 367 367 366 365 364 363 361
333 337 339 340 334 335 338 342 343 348 351 362 363 361 363 362 365 366 367 368 369 369 369 368 369 368 368 368 367 366 365 364 361
344 345 348 351 345 345 337 342 336 354 354 358 363 363 361 362 362 365 367 368 370 370 370 370 369 369 368 368 368 367 366 365 362
344 346 348 346 346 347 346 342 342 349 350 355 358 362 362 363 363 363 365 366 370 370 371 370 370 369 369 368 368 368 367 366 364
346 349 350 346 348 347 345 349 346 348 355 345 349 353 362 364 366 365 365 367 369 370 371 371 370 370 369 369 368 368 368 367 367
349 352 354 348 347 345 343 348 346 350 356 358 354 359 363 364 366 368 365 368 369 370 371 371 371 370 370 369 368 369 368 367 367
347 354 355 358 358 361 360 348 354 358 356 355 359 364 365 366 367 368 368 366 369 368 369 370 370 370 369 368 368 369 366 368 367
343 347 356 354 359 364 363 365 363 363 364 363 363 363 368 369 368 367 369 369 365 369 368 368 368 369 367 366 367 365 358 362 365
342 350 353 356 355 355 356 356 356 357 357 361 365 365 364 364 363 365 367 369 368 364 364 364 363 362 360 360 359 358 358 359 359
341 345 351 353 354 353 353 352 351 351 355 358 358 360 361 363 362 362 366 364 368 368 354 353 354 353 351 351 350 353 354 351 350

GFSFLT1_925_thetae_039.txt.gz
Theta_e
349 350 349 349 348 348 348 349 352 356 356 356 356 358 356 353 359 356 352 351 349 346 351 353 353 354 358 356 354 352 356 355 352
350 350 350 351 348 348 347 348 354 355 358 357 357 359 358 355 353 360 357 350 353 355 348 353 352 354 356 357 356 352 355 359 356
346 348 350 352 349 349 348 348 352 355 359 359 358 358 359 359 353 353 361 357 350 355 352 348 355 354 356 356 355 353 352 358 358
341 347 349 353 351 350 349 348 351 354 357 360 360 360 358 360 358 355 357 361 355 349 355 355 348 351 357 355 356 354 353 354 358
335 343 345 353 352 351 350 349 350 353 354 359 360 361 359 360 361 360 356 360 361 350 354 352 357 354 356 357 356 355 357 359 357
332 340 345 352 353 352 351 350 350 352 353 357 360 361 362 361 361 362 360 358 358 362 355 354 353 358 359 359 358 358 357 356 357
335 340 344 351 352 353 353 351 351 351 352 355 359 361 362 363 362 362 362 360 358 357 361 359 358 358 360 361 358 357 358 358 356
340 342 345 348 351 352 353 353 352 352 352 353 356 361 363 363 363 362 362 362 362 361 356 361 361 361 362 360 362 360 359 358 358
334 336 341 341 346 351 353 354 354 354 354 354 355 359 362 363 363 363 361 362 362 363 363 359 360 363 361 362 363 363 360 359 360
332 332 333 333 333 339 349 355 355 356 356 356 356 356 360 362 363 363 363 362 363 363 364 364 362 360 363 362 362 363 363 362 361
333 335 335 334 332 334 336 350 357 356 356 358 357 357 358 360 362 363 363 363 363 364 364 364 365 365 363 364 363 363 363 363 363
344 344 345 345 345 344 345 341 341 358 358 358 360 358 359 359 363 363 364 364 364 364 364 365 365 366 366 365 365 364 364 363 364
344 345 345 346 345 344 343 347 345 357 360 359 360 361 362 361 362 363 363 364 364 365 365 365 365 365 366 366 366 366 365 365 363
343 346 347 348 346 347 347 342 343 349 351 361 359 359 360 362 363 364 364 364 365 366 366 367 367 367 366 367 367 367 367 366 366
345 343 349 352 348 347 344 342 350 347 345 351 358 361 360 359 359 362 365 366 367 368 368 368 368 368 368 368 368 368 367 367 367
340 340 341 352 357 358 361 353 347 350 359 358 360 356 359 361 361 361 362 365 366 369 369 369 369 369 369 369 368 368 368 368 368
337 339 341 350 354 358 363 362 361 362 364 360 354 357 368 364 364 366 366 363 366 368 370 369 369 369 368 368 367 368 368 367 367
338 338 341 345 349 355 358 356 357 357 358 361 365 355 366 368 366 367 368 366 368 369 368 368 369 368 368 368 368 366 363 363 361
337 338 340 344 347 352 353 355 354 353 353 356 360 365 366 370 367 367 368 368 366 365 368 368 367 367 367 362 361 355 354 355 355
323 339 340 343 346 348 351 350 350 349 352 355 357 356 364 363 365 366 367 368 368 349 344 348 348 348 348 346 345 344 345 346 347

GFSFLT1_925_thetae_042.txt.gz
Theta_e
346 344 348 347 347 346 346 351 350 349 350 351 353 351 351 351 350 349 350 351 351 348 345 345 346 347 351 356 355 352 352 353 351
347 348 348 347 347 347 347 349 351 351 350 350 353 353 353 353 352 352 352 352 350 350 347 347 347 348 350 355 356 353 352 353 354
345 350 349 347 347 347 347 348 350 351 351 350 351 354 353 352 354 354 353 352 352 349 349 348 349 350 351 353 356 355 353 353 354
348 349 349 348 347 347 347 347 350 352 352 351 352 353 354 353 352 352 357 357 353 351 351 353 349 351 352 353 354 356 355 352 353
346 349 349 348 347 347 347 347 350 351 354 353 353 354 355 356 355 353 352 356 359 355 351 350 356 351 354 354 355 355 355 353 351
332 347 349 348 347 347 347 346 348 352 353 355 354 355 355 356 357 356 354 352 355 358 356 352 350 356 352 351 354 356 355 354 352
333 344 348 350 349 347 347 346 348 351 353 357 357 357 357 356 357 358 357 355 353 356 358 356 349 353 353 358 355 356 355 354 353
334 343 348 351 350 349 348 347 347 350 352 355 357 358 358 358 357 358 359 358 356 354 356 358 357 350 355 355 358 358 357 356 354
338 339 348 351 351 350 349 348 347 349 350 353 356 358 358 358 359 358 358 360 359 357 356 355 357 359 356 357 358 358 359 358 356
330 336 346 351 351 350 350 349 348 348 350 351 355 357 357 359 359 360 360 359 360 360 359 357 355 356 358 359 359 360 360 360 359
344 342 337 331 336 344 351 351 350 350 350 351 352 355 358 358 360 360 361 360 360 360 360 361 359 356 356 358 358 358 360 361 361
343 342 341 340 341 339 343 353 353 352 352 352 352 353 354 359 360 361 361 361 360 360 360 360 361 361 360 358 358 359 359 360 361
343 348 344 341 342 342 342 345 351 354 354 354 353 353 354 355 359 360 361 361 361 361 361 361 361 362 362 362 362 361 361 361 361
338 341 349 352 353 346 343 344 344 353 354 355 356 356 355 356 356 359 360 361 361 361 362 361 362 362 363 363 364 364 364 363 363
338 338 346 350 358 358 356 347 346 342 349 355 356 357 358 357 358 358 360 360 361 362 362 363 363 362 363 363 363 365 365 365 365
336 336 339 345 350 356 358 358 359 359 360 357 358 358 358 359 361 361 361 361 361 362 362 363 364 364 364 365 366 366 366 367 367
331 336 337 341 346 348 352 355 356 356 356 359 362 354 361 360 360 361 363 363 363 364 364 365 365 365 366 366 367 367 368 367 367
318 330 335 340 342 344 348 354 353 352 350 350 355 360 362 356 365 361 362 362 363 365 366 366 367 367 367 367 367 366 367 366 366
316 319 335 338 340 340 345 350 349 349 348 352 354 356 358 364 367 365 364 361 356 362 365 367 367 367 368 365 365 365 364 360 357
319 322 328 338 340 343 347 348 348 348 350 353 353 352 349 356 367 366 366 362 356 341 343 349 354 360 364 359 355 350 350 350 349

GFSFLT1_925_thetae_045.txt.gz
Theta_e
346 348 349 349 347 348 348 348 347 346 347 347 346 346 347 346 346 346 345 343 347 350 349 348 346 348 349 349 351 353 352 351 350
348 344 343 346 348 346 347 348 348 348 347 348 348 347 348 348 347 347 346 346 345 349 350 349 347 345 346 347 350 354 354 352 351
346 345 344 343 346 346 345 347 348 348 347 348 349 348 348 349 349 348 347 347 346 347 350 349 347 345 345 347 347 353 355 352 351
344 347 345 343 345 347 346 347 349 349 348 348 349 350 349 349 350 349 349 349 348 347 349 349 348 346 347 348 348 350 355 354 352
339 345 345 344 345 346 346 345 348 349 349 348 348 350 351 350 350 351 350 350 350 349 349 350 349 348 347 349 350 350 353 355 354
333 341 343 344 345 345 346 346 346 349 349 349 348 349 351 351 350 350 351 352 352 351 351 351 351 352 352 349 350 352 352 353 355
324 339 342 345 346 345 346 346 346 348 350 350 349 349 350 352 352 351 350 350 351 353 353 354 353 352 350 353 351 352 353 353 354
322 336 344 346 346 345 345 346 346 348 349 351 351 351 352 352 353 353 353 352 351 351 352 352 352 354 353 350 353 353 350 350 353
326 342 345 347 346 345 346 345 345 347 349 352 352 352 352 352 353 354 354 354 353 352 352 353 353 352 352 353 351 351 353 356 354
332 338 344 347 346 345 345 345 345 346 350 351 354 354 354 354 354 354 355 355 355 354 353 352 354 354 353 353 353 351 351 353 356
347 340 341 345 346 346 346 346 345 346 349 350 354 355 355 356 356 355 355 356 357 357 355 354 354 354 355 355 354 353 353 353 355
345 349 338 337 344 346 347 347 346 346 348 350 351 353 355 356 356 357 357 356 356 357 358 357 356 355 354 353 354 355 355 355 357
341 349 350 341 339 346 349 348 347 347 348 348 349 352 354 355 356 357 357 358 358 358 358 358 359 359 358 356 355 354 354 355 356
336 341 348 355 351 341 341 348 349 348 348 349 349 349 351 354 356 357 358 358 359 358 358 358 358 358 359 359 360 359 358 357 357
335 336 342 348 354 353 345 342 349 349 350 351 352 352 351 352 353 357 358 359 359 359 359 358 359 359 360 360 360 361 361 361 361
322 334 337 342 345 351 353 355 355 354 357 356 356 354 354 353 353 353 356 358 359 359 359 359 359 359 360 360 361 361 362 362 363
316 322 334 338 341 343 348 350 349 348 349 355 358 357 357 356 357 356 356 357 358 358 359 359 359 360 361 361 362 362 363 363 364
319 321 328 336 337 339 344 348 346 348 349 348 351 357 358 359 358 358 359 359 359 359 359 360 360 360 361 362 363 364 364 365 365
318 324 330 334 336 338 343 347 347 349 350 352 352 352 353 354 359 363 359 358 350 356 361 362 363 363 363 364 365 365 366 366 365
318 320 325 332 334 338 342 345 346 347 348 348 349 347 349 352 352 361 361 353 345 340 344 358 364 365 366 365 366 363 362 358 355

GFSFLT1_925_thetae_048.txt.gz
Theta_e
351 350 349 348 347 346 345 346 345 345 345 344 344 344 345 345 345 345 344 343 342 340 338 341 345 346 347 348 349 350 351 350 350
350 349 347 350 348 348 346 346 346 345 345 345 344 344 345 345 345 344 344 343 344 339 339 342 345 347 346 347 349 349 351 352 350
346 347 345 347 349 347 347 347 346 346 346 345 345 345 345 345 345 344 344 344 344 344 341 344 347 348 348 346 347 348 350 353 353
344 345 345 346 348 348 347 347 347 346 345 345 345 345 345 346 346 346 345 345 345 345 344 343 347 348 347 347 345 345 348 350 354
343 344 345 343 343 346 347 347 347 347 346 345 346 346 346 346 346 347 346 346 346 346 345 345 344 349 348 346 345 346 348 348 351
330 339 342 343 342 342 346 345 346 347 347 347 347 347 347 347 347 347 347 347 347 347 347 347 346 348 348 348 347 347 348 350 349
320 324 340 343 343 341 344 345 346 348 347 347 347 348 348 348 348 348 348 348 348 348 348 348 347 347 348 348 346 348 348 350 351
326 325 324 339 343 342 343 346 345 347 348 347 347 347 349 349 349 349 349 349 349 349 349 348 348 348 348 349 349 349 352 351 350
346 335 324 329 342 343 344 345 345 346 348 348 347 347 348 349 349 349 349 349 349 350 351 351 351 350 350 349 350 350 348 349 353
346 347 332 326 340 343 344 345 345 346 348 349 349 348 348 348 350 351 351 350 349 349 349 350 351 351 351 351 350 348 349 348 348
342 348 344 339 342 344 344 345 345 345 347 349 350 349 349 349 350 351 352 352 352 351 350 350 351 352 351 351 350 349 347 347 349
338 344 349 337 342 343 344 344 345 345 348 349 351 350 350 351 351 351 352 353 353 353 353 352 351 351 352 352 352 351 349 349 351
337 341 349 345 343 343 344 344 344 346 348 350 352 352 352 353 353 353 353 352 353 354 355 354 353 353 352 353 352 352 352 352 352
328 337 344 350 343 343 345 345 344 346 347 349 350 352 353 353 354 354 354 354 354 354 355 356 356 356 355 355 354 355 355 354 354
324 332 339 343 351 350 342 345 345 346 347 347 348 350 351 353 354 355 355 356 356 356 356 356 357 357 357 357 358 358 358 358 357
326 329 335 338 344 347 348 350 348 351 354 350 348 348 349 351 353 354 355 356 356 357 357 357 357 357 357 358 358 358 359 359 359
326 330 332 335 338 341 344 345 349 351 355 354 354 352 350 349 350 352 355 356 357 357 357 357 358 357 358 358 358 358 359 360 360
320 324 330 332 335 338 341 344 348 350 349 351 355 355 356 356 353 352 352 354 356 357 357 357 357 358 358 359 359 359 360 361 361
317 319 325 331 335 337 341 344 345 349 349 348 348 349 351 352 357 356 355 353 350 355 356 357 358 358 358 359 360 361 362 362 363
317 317 321 329 334 334 338 342 342 342 342 342 342 344 346 348 349 357 355 350 346 342 345 352 358 359 360 362 362 363 364 365 365

GFSFLT1_925_thetae_051.txt.gz
Theta_e
353 353 352 351 350 349 349 348 348 347 346 346 345 345 345 344 343 347 347 347 347 347 347 347 350 345 346 346 348 349 350 353 353
352 353 352 351 350 349 349 349 349 348 348 347 346 347 346 346 345 346 346 346 346 347 346 346 348 342 345 346 346 348 351 354 354
350 352 353 352 351 349 349 349 349 348 348 348 347 346 347 347 347 346 346 346 346 346 346 343 345 342 345 347 346 347 350 353 354
344 350 352 352 352 350 350 349 349 349 348 348 348 347 347 347 348 348 348 348 347 345 344 344 341 342 344 347 349 349 349 351 354
341 346 350 351 351 351 350 350 349 349 349 348 348 348 347 347 347 348 348 347 348 346 345 344 344 342 345 347 349 352 351 353 352
336 345 348 349 348 351 351 351 351 350 349 348 348 348 348 348 348 348 348 348 348 348 347 344 345 345 344 347 350 350 350 350 353
328 334 345 349 349 353 353 352 352 351 350 349 349 349 349 349 349 349 349 349 348 349 347 345 345 346 346 347 352 353 353 353 353
340 338 333 345 349 352 352 353 352 351 351 350 349 350 350 350 350 349 349 350 350 349 349 349 346 346 348 349 351 350 353 353 354
349 349 349 343 338 350 352 350 352 351 351 351 350 350 351 351 351 350 350 351 351 351 350 350 349 351 351 351 350 348 349 349 353
345 347 348 351 348 337 350 348 350 350 351 351 351 351 351 352 352 352 352 352 352 353 353 352 351 352 352 352 351 349 346 346 349
340 344 346 348 350 342 341 344 347 349 351 351 351 352 352 352 353 353 353 353 353 353 354 355 354 354 353 353 352 350 348 346 347
328 338 342 348 351 343 341 347 348 350 352 352 352 352 352 352 353 353 353 354 353 352 352 352 353 354 355 354 353 351 349 349 350
329 338 343 351 347 343 346 349 349 351 351 353 353 352 353 352 352 353 354 355 355 354 354 353 353 353 354 355 355 353 349 350 351
335 342 344 352 349 349 350 349 349 351 352 354 353 353 353 353 353 354 354 355 356 356 356 356 356 355 355 355 355 355 353 351 351
334 338 344 348 352 349 349 349 350 352 354 353 354 354 354 355 355 355 355 356 356 356 357 358 358 358 358 358 358 356 354 353 353
330 334 341 346 350 351 352 350 350 352 353 353 354 356 357 357 357 357 357 358 358 357 358 358 359 359 359 359 360 360 359 357 357
322 328 338 345 349 350 351 353 355 356 357 353 353 354 356 357 357 358 358 358 358 358 359 359 359 359 360 360 360 361 361 359 357
322 324 332 339 344 347 348 349 350 350 353 358 356 354 354 355 356 356 358 358 358 358 359 359 359 360 360 361 361 362 361 362 361
321 324 328 329 327 338 345 345 343 344 345 346 351 355 357 358 355 353 355 358 350 356 357 358 359 359 360 361 361 361 360 359 359
320 321 325 326 324 326 331 339 337 334 336 344 344 346 348 350 355 360 358 356 353 352 344 351 355 357 358 358 359 359 359 361 361

GFSFLT1_925_thetae_054.txt.gz
Theta_e
353 353 354 353 352 349 349 349 348 348 350 353 353 352 352 350 349 347 349 351 349 349 347 347 349 355 355 356 355 355 356 354 353
351 352 353 354 353 351 349 350 351 351 351 352 353 351 353 353 351 349 349 349 351 349 349 347 348 351 354 354 354 355 355 353 356
345 349 352 353 354 352 351 350 350 351 351 352 353 351 352 352 351 351 350 350 350 351 350 351 348 351 352 351 353 355 356 353 355
341 347 351 352 353 352 352 351 350 351 351 352 351 352 351 351 351 351 352 351 352 353 353 352 353 351 350 350 354 355 355 354 353
340 342 348 351 352 351 352 352 351 350 351 351 352 351 353 353 352 352 352 353 352 354 355 354 354 353 352 350 352 354 356 355 352
339 341 343 349 351 353 352 352 352 351 351 350 351 352 352 352 352 352 352 353 353 354 355 355 354 354 354 352 352 354 356 356 354
335 339 343 347 349 351 352 352 354 353 351 350 349 351 351 352 352 352 352 353 354 354 354 355 355 354 354 354 352 351 353 354 355
336 335 335 341 346 350 354 354 356 355 352 352 350 352 352 353 354 353 353 354 354 354 354 355 356 355 354 354 353 350 351 352 353
344 342 345 342 341 348 351 352 355 356 356 353 353 354 354 354 356 355 356 356 356 356 355 355 356 356 355 354 353 349 348 350 351
345 346 347 348 349 347 344 349 352 355 358 355 354 356 356 356 357 358 357 357 357 357 357 356 357 357 356 355 355 352 349 348 348
343 344 344 348 349 349 349 343 347 351 355 357 357 358 358 357 358 359 359 359 359 359 357 358 358 358 358 357 356 354 352 349 350
342 343 344 346 347 349 350 351 342 348 352 355 358 359 359 359 359 359 359 359 359 358 358 359 358 358 358 358 358 355 353 352 351
342 343 345 347 349 351 352 352 342 346 351 354 359 359 359 359 359 360 359 360 360 359 359 359 359 359 359 359 359 358 355 353 352
334 339 346 350 354 354 350 348 342 350 353 355 357 356 356 357 359 360 360 360 360 360 359 358 358 358 358 359 359 359 358 354 354
326 337 349 353 354 352 348 347 348 355 358 355 356 356 356 358 359 358 359 361 361 360 360 360 361 360 359 358 359 358 359 357 355
323 333 340 352 355 355 353 351 351 354 357 356 357 357 358 358 359 359 358 360 361 361 361 361 361 361 360 359 359 360 359 357 356
325 329 327 335 351 354 357 357 355 356 357 357 358 359 359 359 360 360 359 360 361 360 360 360 360 360 360 360 360 361 362 360 358
325 327 329 328 332 347 348 349 350 353 358 357 358 359 360 361 361 360 361 361 360 361 360 359 361 360 361 361 361 362 363 364 364
324 327 326 328 330 332 338 339 343 346 351 354 359 358 358 358 358 361 361 362 357 355 356 358 360 360 360 362 362 362 363 362 363
325 325 325 327 328 327 330 331 333 337 343 350 352 355 360 360 357 359 360 359 359 354 353 355 358 359 359 360 361 361 361 361 360

GFSFLT1_925_thetae_057.txt.gz
Theta_e
353 354 352 351 350 348 350 350 350 349 355 357 357 355 353 349 350 347 347 347 348 347 346 345 355 358 355 356 357 356 356 355 354
351 353 353 353 351 348 349 350 352 351 353 357 357 355 355 354 351 347 344 344 348 350 346 347 348 353 356 355 354 355 355 353 356
350 354 352 353 354 351 349 350 350 352 353 356 357 355 356 355 354 352 348 348 354 350 350 349 350 349 352 355 354 354 355 352 353
344 349 350 352 354 352 351 351 350 351 352 354 356 356 356 354 354 354 351 354 354 354 353 353 352 353 352 353 353 353 356 354 353
340 342 347 350 351 352 353 352 352 352 352 352 355 356 357 355 355 353 352 351 354 355 355 355 355 356 354 354 351 353 356 356 352
338 340 343 348 349 351 353 353 353 352 352 352 353 355 356 356 355 355 353 355 354 354 356 357 357 356 357 355 352 353 356 357 356
337 341 344 345 349 351 352 354 356 355 352 352 352 353 354 355 357 356 355 356 356 356 357 358 358 358 358 357 355 353 353 356 357
336 337 340 344 346 355 361 357 358 357 354 354 352 353 353 354 357 357 357 356 358 357 358 359 359 359 359 358 356 355 353 355 356
337 338 338 338 344 348 351 353 359 359 357 356 354 355 354 354 357 358 358 357 358 359 359 360 360 360 360 359 356 353 352 352 353
341 343 343 345 345 343 346 349 353 357 359 357 357 357 357 356 357 359 358 358 359 360 360 360 361 361 360 361 359 354 352 350 351
345 345 345 346 347 347 346 346 349 351 356 359 359 359 360 358 360 360 360 360 361 361 362 361 362 362 361 361 361 358 353 352 349
346 347 348 347 346 346 347 349 346 347 353 361 360 362 360 361 360 363 363 363 363 363 363 363 362 362 363 363 362 358 355 354 351
341 343 346 349 350 350 351 351 351 350 348 356 363 362 362 362 362 364 365 365 365 364 364 364 361 362 363 364 364 362 358 355 354
334 338 344 346 353 354 354 355 353 354 349 354 359 362 362 364 363 364 365 366 365 366 365 362 364 363 363 363 362 364 361 357 356
328 334 332 338 354 357 355 355 356 359 358 352 358 360 362 364 365 363 364 366 366 366 366 365 366 365 366 363 364 362 363 362 359
326 328 328 333 346 361 359 355 350 358 355 357 360 362 363 364 365 365 363 366 367 366 366 363 363 363 362 360 359 362 361 360 360
327 327 327 330 338 346 355 355 359 361 360 359 362 364 364 364 365 365 364 365 365 364 363 363 362 361 360 359 356 353 356 359 358
327 327 327 328 330 333 336 340 343 348 357 360 361 363 363 363 363 362 364 363 363 362 361 361 361 358 356 354 356 356 358 360 363
327 326 327 326 326 328 329 331 332 336 345 357 361 363 363 362 361 362 363 362 357 358 357 357 358 357 358 361 359 359 361 360 363
324 324 324 326 326 326 326 327 328 330 336 346 359 361 362 362 361 362 364 363 361 359 355 358 359 360 359 359 359 360 361 361 362

GFSFLT1_925_thetae_060.txt.gz
Theta_e
352 354 352 353 353 352 350 349 349 351 355 355 354 357 350 348 352 346 347 352 347 351 348 353 352 353 354 354 354 355 354 354 355
353 348 348 353 353 351 352 351 350 352 355 356 356 354 356 349 352 352 349 350 349 348 348 349 354 351 357 354 356 354 354 353 353
350 348 346 349 353 351 352 352 352 351 355 357 358 357 357 355 347 352 348 345 348 348 350 345 355 355 354 355 356 355 356 354 352
348 347 351 351 352 352 351 352 353 352 353 359 360 359 357 356 355 350 347 349 343 352 348 354 347 354 355 355 354 356 356 352 354
350 350 351 348 344 343 352 352 353 354 353 355 359 360 359 357 356 353 352 346 352 349 352 349 356 350 355 353 356 356 355 357 354
350 347 346 345 347 350 354 352 353 354 354 354 358 360 359 359 358 357 354 352 347 354 354 357 354 357 353 356 355 354 354 357 357
337 349 350 349 351 356 356 354 354 354 354 354 355 358 359 359 359 358 356 356 351 356 357 355 357 357 359 358 357 355 354 358 359
338 339 344 343 350 353 357 357 356 355 355 354 354 355 357 359 359 358 358 356 356 351 355 358 358 358 359 360 360 358 354 355 359
349 341 338 344 348 353 355 359 359 357 356 356 355 355 357 357 359 359 358 357 357 357 356 357 359 361 360 362 361 359 355 355 356
348 351 347 351 352 352 348 343 349 360 358 356 356 356 356 357 359 360 359 359 357 360 359 360 360 361 361 362 362 359 355 354 355
341 349 350 351 347 349 348 344 344 359 360 359 359 357 359 358 358 359 360 360 361 359 361 361 361 362 362 362 362 361 357 354 353
341 337 341 348 347 347 350 351 350 353 360 360 359 362 359 361 358 360 360 361 361 361 361 362 362 362 363 362 362 362 360 355 353
335 336 337 344 347 349 351 351 351 352 353 364 361 359 362 360 361 360 362 361 361 361 361 362 363 362 363 363 363 362 362 359 356
328 331 334 335 339 346 351 358 355 354 354 355 364 361 360 363 363 361 363 363 362 363 363 363 364 364 363 364 364 364 363 361 359
327 329 328 330 335 345 357 362 362 358 359 355 356 364 363 363 363 365 363 365 365 365 365 365 365 365 365 365 366 365 365 365 360
326 327 328 328 331 336 340 343 355 365 362 360 357 360 365 364 366 365 364 366 367 367 367 367 366 366 367 366 366 366 365 364 364
323 327 328 326 328 329 332 333 340 347 351 363 363 356 367 365 367 367 366 366 367 368 368 368 367 366 367 366 365 365 367 365 363
322 326 326 326 326 326 326 328 334 338 340 349 363 364 367 367 367 367 367 365 367 367 367 367 367 366 364 366 364 362 361 363 361
324 325 324 326 325 324 325 325 326 329 333 337 352 368 368 367 367 367 367 365 361 366 367 366 365 363 364 359 359 356 357 355 359
321 322 322 323 325 324 324 324 324 326 329 333 340 353 364 365 364 365 365 365 363 358 352 356 358 361 358 361 362 361 361 360 359

GFSFLT1_925_thetae_063.txt.gz
Theta_e
347 347 344 349 347 345 346 349 349 349 350 352 353 348 347 350 347 347 348 353 353 351 353 351 351 355 353 351 351 351 351 353 352
345 354 351 351 348 347 346 347 348 350 351 350 353 351 346 348 350 346 346 348 354 355 355 354 348 352 355 351 352 349 353 352 352
353 352 353 350 348 349 347 347 349 349 352 351 353 353 350 346 349 348 345 345 347 352 348 351 352 353 353 353 352 354 353 353 352
352 347 349 349 349 346 347 347 348 350 353 352 353 353 354 349 347 350 348 347 345 349 349 350 348 354 353 354 354 354 356 354 352
350 344 344 348 347 342 342 345 348 349 352 354 354 354 353 355 349 346 350 347 344 347 347 349 354 353 352 356 356 355 355 355 353
348 346 348 345 344 345 344 342 342 350 350 355 355 356 354 355 355 349 347 347 344 340 343 346 347 356 357 356 354 353 353 355 354
347 346 346 344 341 338 337 339 342 350 351 352 357 357 358 356 356 355 349 347 345 347 345 345 346 349 355 352 353 353 353 354 354
346 348 348 345 342 340 348 344 350 351 351 351 354 358 359 358 357 356 355 351 350 343 351 347 354 353 355 357 353 354 353 353 354
343 346 341 346 345 342 347 344 343 348 351 353 352 356 359 359 358 357 357 356 354 352 346 356 349 356 356 357 359 356 354 353 353
343 340 339 339 346 345 345 346 346 344 351 353 354 353 357 358 358 358 357 357 356 356 353 351 359 355 355 356 356 358 357 355 354
337 337 338 339 340 339 343 342 347 350 351 353 352 354 354 357 358 358 358 357 357 356 356 353 352 357 358 358 358 358 360 358 356
329 330 332 334 334 336 339 345 343 348 348 353 351 354 356 357 357 359 359 358 358 357 357 357 355 356 358 360 360 359 360 360 358
326 328 329 329 331 333 336 343 348 348 341 344 349 356 357 357 357 358 359 359 357 359 357 357 359 358 359 360 360 360 360 360 360
324 327 328 328 329 330 335 340 340 358 354 353 354 356 360 359 358 357 359 359 359 358 360 359 358 360 360 360 361 361 360 361 361
322 323 327 326 327 329 331 333 335 341 349 350 356 354 359 361 361 359 359 359 360 360 359 360 360 360 361 361 361 362 362 362 361
321 323 326 326 326 326 327 327 329 335 336 339 344 354 357 361 362 362 360 361 361 361 361 361 361 361 361 362 362 363 363 362 362
321 323 325 326 325 324 325 325 326 327 331 333 337 347 361 361 362 364 362 363 362 362 362 362 362 362 362 362 362 363 364 365 364
321 320 325 325 326 325 324 324 324 324 325 329 333 341 360 363 363 365 365 363 365 364 364 363 363 363 363 363 364 363 364 365 365
319 323 322 322 325 323 322 322 321 321 322 325 329 334 349 363 364 365 365 364 363 366 366 365 365 364 365 364 364 365 363 365 365
320 321 319 320 322 320 319 320 317 318 320 323 326 329 335 345 365 366 366 365 363 358 363 366 366 366 365 365 364 363 364 363 362

GFSFLT1_925_thetae_066.txt.gz
Theta_e
346 347 344 345 342 342 345 344 344 349 350 349 348 346 346 345 347 348 350 351 351 352 353 351 352 353 353 351 348 348 351 350 350
348 348 344 347 343 343 346 345 344 346 350 349 348 347 346 345 346 346 348 351 352 352 351 350 350 353 354 352 349 348 352 350 351
348 347 350 349 345 343 344 346 345 345 347 349 348 348 347 346 345 346 347 347 350 353 352 351 351 352 354 353 351 350 349 351 350
344 350 350 349 348 346 344 346 347 346 346 348 350 349 348 347 345 347 346 347 346 349 353 352 353 353 349 354 352 351 351 350 351
344 349 348 348 348 347 346 344 347 347 348 347 347 350 350 348 345 345 347 347 345 345 346 351 353 349 351 352 353 351 353 353 353
345 346 342 339 341 345 346 346 345 347 348 349 349 349 350 350 348 344 345 347 347 346 344 348 352 349 349 353 352 352 352 354 353
346 346 346 345 345 345 344 343 343 346 348 350 350 350 351 351 351 348 344 344 347 346 346 344 347 351 352 352 351 354 355 354 354
344 343 344 345 346 345 344 340 342 343 346 349 352 351 352 351 352 352 350 345 344 346 344 344 345 346 350 355 354 353 353 352 351
339 340 340 340 339 339 341 343 345 345 347 348 353 353 353 353 352 353 353 351 346 344 343 342 344 345 345 351 355 354 353 352 352
332 335 339 339 337 336 337 341 343 345 345 348 350 355 355 355 356 354 354 354 352 348 346 344 344 348 348 351 351 354 354 352 352
329 330 330 330 332 334 336 339 345 346 346 344 351 351 356 357 357 356 356 355 354 352 351 348 345 349 349 351 355 355 355 354 354
325 327 328 328 329 331 334 339 340 348 348 342 341 344 351 354 358 357 356 356 355 355 354 352 349 348 352 352 351 352 354 355 355
322 325 327 327 327 330 332 334 335 342 348 344 339 343 346 348 354 357 357 357 356 356 355 355 354 351 350 354 356 356 355 354 355
319 323 326 326 325 328 329 329 332 336 339 343 343 345 351 354 353 355 356 357 357 356 356 355 355 355 353 352 353 354 355 355 357
315 322 324 325 325 324 325 326 328 329 331 333 334 337 343 350 356 356 356 357 357 357 356 356 355 356 357 355 356 357 357 357 358
314 320 322 324 325 323 323 323 325 326 326 328 330 333 341 344 350 358 356 356 357 357 356 357 357 355 355 358 358 358 359 359 359
314 318 320 323 324 325 324 322 322 323 323 327 330 330 332 339 344 357 358 356 357 357 358 357 357 358 358 357 358 359 359 359 360
315 318 319 323 322 324 322 320 321 319 320 323 324 327 328 333 343 358 360 358 358 357 358 358 358 357 358 358 358 359 359 360 359
316 318 321 320 321 320 317 316 316 316 316 318 322 323 326 329 332 342 360 361 360 360 359 359 359 358 359 359 359 360 360 360 361
317 318 318 317 317 314 312 312 313 312 314 315 319 320 322 324 328 336 354 361 361 358 359 361 360 360 360 360 360 361 361 362 362

GFSFLT1_925_thetae_069.txt.gz
Theta_e
352 349 347 346 341 342 343 342 342 346 346 345 345 345 344 344 343 344 349 349 351 347 349 350 351 351 351 351 350 347 349 349 349
352 348 347 347 341 341 342 343 343 345 346 346 345 345 345 344 343 343 347 348 350 351 348 350 351 352 351 352 351 349 349 350 348
350 349 345 345 343 341 342 343 343 344 346 346 345 345 346 345 344 342 345 347 347 351 352 350 351 352 351 352 353 352 349 351 350
344 344 345 345 344 342 342 343 343 344 346 346 346 346 346 346 345 343 343 346 347 347 351 352 352 351 350 350 352 353 351 349 350
343 344 345 346 345 343 342 344 343 343 344 347 346 346 346 345 345 344 343 342 345 347 347 348 353 352 351 351 351 352 352 350 349
345 345 343 342 343 343 344 344 345 344 344 346 347 347 346 345 345 345 343 342 341 344 346 346 347 349 352 353 352 351 352 351 350
340 341 343 343 343 342 341 343 345 345 346 345 346 347 348 347 346 345 344 342 340 341 342 344 345 345 349 351 350 351 351 351 351
337 339 338 337 337 337 340 343 343 342 344 346 347 346 348 348 348 347 345 344 342 338 339 341 342 345 346 351 353 352 352 351 351
332 332 332 333 335 336 337 338 343 344 343 343 348 348 347 348 348 349 347 345 345 343 341 338 341 342 344 345 348 352 353 351 351
328 330 329 330 330 333 335 337 341 344 346 345 346 350 349 349 349 349 350 349 347 346 344 343 342 341 341 343 342 344 349 353 353
324 327 327 328 328 329 331 335 336 341 346 346 346 350 351 350 351 349 350 351 350 349 346 345 345 344 342 341 341 340 340 344 352
315 321 325 326 325 327 330 331 332 339 345 347 339 342 349 352 352 353 352 352 352 352 350 348 347 346 345 344 344 344 341 342 348
312 314 320 326 325 325 327 327 328 334 337 338 337 341 345 347 347 355 355 354 353 353 352 352 350 349 348 348 348 347 346 347 351
310 312 315 323 325 325 323 325 325 329 331 331 331 333 336 342 346 349 351 353 356 355 354 354 353 352 351 350 350 350 350 348 350
310 311 313 320 324 325 323 323 323 325 327 325 327 331 333 335 338 341 346 355 354 355 355 354 354 354 353 352 351 350 351 352 352
311 312 313 316 322 324 324 322 321 322 323 322 323 327 331 332 335 337 342 352 355 355 355 355 355 354 354 354 353 352 352 352 352
310 311 313 315 319 323 324 322 320 319 319 320 319 322 326 329 333 335 340 349 356 355 355 355 355 355 354 354 355 355 354 354 354
309 310 312 315 319 321 322 320 318 316 316 316 317 319 323 327 330 330 332 337 352 356 355 356 355 355 355 355 354 354 356 356 356
309 309 312 315 319 320 318 317 315 314 313 313 314 316 319 323 324 326 328 334 340 356 357 356 356 356 356 356 356 356 356 356 357
311 313 313 318 319 317 314 313 312 311 310 312 314 314 317 318 318 324 327 329 334 346 358 357 357 356 356 356 356 356 357 357 357

GFSFLT1_925_thetae_072.txt.gz
Theta_e
349 349 348 347 340 341 342 342 342 343 343 344 344 344 343 344 345 344 345 346 347 346 346 348 347 350 349 350 349 349 348 348 347
348 350 348 346 340 341 341 341 341 343 343 343 343 343 343 344 345 344 344 346 348 348 348 347 349 349 349 350 350 350 347 349 349
343 349 347 345 343 340 342 341 341 342 343 343 343 343 343 343 342 344 342 343 348 348 349 350 348 348 349 350 350 351 351 348 349
345 342 347 344 344 340 341 342 341 341 344 344 344 344 344 344 344 344 344 342 344 348 348 349 351 350 350 350 349 349 349 350 348
341 343 343 344 344 341 340 341 342 342 343 344 344 344 344 344 343 344 344 342 342 345 347 347 348 351 351 351 350 350 351 352 350
337 337 339 341 342 343 343 342 342 342 343 345 345 345 345 345 344 344 344 344 342 342 345 346 347 347 351 352 352 351 352 351 352
332 333 335 335 336 337 340 342 344 344 342 343 345 346 345 345 344 344 344 343 343 342 341 343 345 346 346 348 348 350 352 351 351
329 331 331 332 334 335 336 339 342 343 343 343 343 346 346 346 345 344 344 344 343 343 342 341 341 344 344 345 345 347 349 350 350
325 328 329 329 330 331 333 336 339 341 343 343 344 344 345 346 346 346 345 344 344 344 343 342 341 341 342 342 344 345 346 350 350
317 319 323 326 327 327 329 332 334 335 340 345 344 346 345 345 347 347 347 346 345 344 344 344 343 341 340 341 341 342 344 344 347
312 313 314 318 324 325 326 329 328 333 341 345 345 345 347 347 346 347 347 347 347 346 345 344 343 343 343 341 339 337 339 340 343
310 310 311 313 317 324 325 324 325 330 335 338 341 341 344 348 347 347 348 348 349 349 346 345 345 344 344 344 344 344 341 339 342
308 308 309 311 313 320 323 324 323 325 330 331 331 333 336 341 347 349 350 349 349 350 349 349 347 346 346 347 347 347 347 344 344
307 307 308 311 312 316 321 323 323 322 325 326 327 330 333 337 340 344 348 352 352 350 351 351 351 350 349 348 349 350 349 347 345
306 306 308 311 312 313 317 321 323 322 322 322 322 326 330 332 336 338 342 344 346 351 354 353 352 352 351 350 351 351 351 349 348
305 305 308 310 310 312 315 319 322 321 321 319 318 320 325 328 330 332 336 340 341 347 352 354 354 354 353 353 353 352 352 351 351
304 305 307 308 308 311 314 317 320 322 318 316 315 316 318 323 327 328 330 332 336 341 352 354 354 355 354 354 353 353 353 352 351
304 306 306 307 308 309 312 317 319 320 316 314 311 313 315 319 323 324 325 328 332 337 345 352 354 355 355 354 354 353 353 353 353
307 307 307 308 308 309 311 317 318 317 316 312 309 311 314 316 318 319 321 326 330 332 336 347 354 354 355 355 355 354 354 353 354
306 307 309 311 312 311 313 317 315 314 314 312 308 308 310 314 314 315 319 323 325 328 331 337 348 354 355 355 355 355 355 355 354

GFSFLT1_925_thetae_075.txt.gz
Theta_e
346 352 352 350 346 345 345 345 346 346 347 347 348 348 347 347 349 349 348 349 349 351 351 351 351 349 349 348 348 348 347 350 351
348 350 348 351 348 345 345 345 346 346 347 348 348 347 349 347 346 347 348 349 346 349 347 350 347 348 349 349 348 348 349 351 347
345 347 350 350 350 346 345 345 345 346 347 347 346 347 348 348 348 347 348 346 346 349 348 347 351 350 350 348 349 349 350 351 349
341 348 349 351 349 346 346 345 345 345 346 346 347 347 347 347 347 346 348 349 346 347 347 348 349 350 350 351 349 350 350 351 354
338 340 345 348 348 346 345 345 345 344 345 346 346 346 346 345 347 346 347 346 345 344 345 348 348 349 352 354 354 352 350 351 353
333 335 337 338 340 343 346 346 345 344 344 345 346 346 346 344 344 346 348 348 346 344 343 347 350 348 348 353 355 354 352 352 350
330 331 331 332 334 336 338 342 346 346 345 344 345 346 346 345 344 344 346 348 348 348 343 344 348 348 349 349 353 355 355 355 355
326 326 327 329 329 330 332 335 338 343 345 346 346 347 347 347 347 344 344 345 347 347 347 345 344 348 349 351 352 352 353 354 356
321 320 321 323 326 327 327 330 332 334 338 343 345 345 347 348 348 348 347 346 346 346 347 348 347 348 347 348 349 348 347 348 354
314 315 316 319 320 323 326 326 328 328 332 342 346 346 346 347 348 349 349 348 348 348 347 348 348 348 348 347 345 345 346 345 349
314 313 313 314 316 318 321 324 325 325 330 335 343 348 347 348 348 348 350 350 350 349 348 348 348 349 348 347 346 343 339 340 343
312 312 311 311 312 315 318 321 324 326 327 331 331 336 341 344 347 350 350 350 351 351 350 349 348 348 349 348 346 345 344 342 345
310 309 310 310 311 313 315 318 321 325 326 328 330 328 328 333 340 343 351 351 351 352 352 351 350 349 349 349 348 347 347 346 346
309 308 308 308 310 313 313 315 319 323 325 325 324 324 325 328 334 337 341 347 352 353 353 353 353 353 352 351 350 349 349 349 345
308 308 307 308 309 311 311 312 316 320 322 324 323 322 321 324 328 332 335 339 342 346 352 353 353 354 355 355 354 352 350 351 350
307 307 307 307 308 309 310 310 313 317 320 322 322 319 318 320 322 327 330 333 338 344 346 349 353 355 355 355 355 355 354 351 353
307 307 307 306 307 308 309 310 311 313 318 321 319 319 317 318 319 323 326 328 332 335 340 345 348 353 356 356 355 356 356 355 351
307 308 308 308 308 308 309 309 310 312 315 319 317 317 316 317 318 320 322 325 325 331 335 337 345 350 354 356 357 357 357 357 356
306 307 309 309 309 310 310 312 313 313 315 317 315 315 316 316 315 316 319 317 321 325 327 328 330 336 340 348 354 356 356 356 354
306 306 306 306 306 306 308 307 310 313 312 310 311 313 313 313 313 315 315 317 320 322 325 326 328 331 336 343 349 354 355 355 354

GFSFLT1_925_thetae_078.txt.gz
Theta_e
343 353 355 352 350 349 348 348 348 349 350 353 353 353 353 354 354 352 351 350 348 349 350 351 353 356 351 352 352 353 355 350 349
350 350 354 353 350 349 349 349 349 349 350 352 353 352 353 353 354 353 349 348 350 350 351 350 353 355 354 352 352 352 355 350 352
349 351 353 353 352 350 349 349 349 350 350 352 353 352 352 352 353 354 353 351 350 351 349 352 351 356 355 353 355 355 355 352 352
344 346 352 352 351 351 349 349 349 349 351 351 353 353 352 352 352 352 353 351 351 352 351 352 354 356 355 354 354 355 357 355 353
337 340 340 341 344 351 350 350 350 350 350 350 351 352 352 352 352 352 351 351 351 351 352 352 354 356 355 351 353 355 357 355 352
334 334 334 335 337 339 342 345 351 350 349 349 349 349 350 350 351 351 351 350 352 351 352 352 351 354 356 354 353 355 356 357 356
329 330 331 332 331 331 333 338 342 345 350 349 348 349 350 349 350 350 349 349 351 352 352 352 351 351 354 356 353 353 356 357 358
329 328 328 329 330 329 329 330 332 335 340 344 350 349 349 350 351 351 350 349 350 351 353 353 353 351 351 353 354 354 356 358 357
324 323 323 324 325 326 328 328 328 328 330 336 346 349 350 351 350 351 352 351 348 351 352 353 353 353 351 350 348 347 351 352 356
320 319 319 319 319 320 322 325 326 328 328 333 336 347 351 349 350 352 352 353 353 352 352 353 353 353 353 352 351 346 344 348 350
321 320 318 317 316 317 318 320 322 326 329 330 332 331 335 340 348 351 351 352 353 353 354 353 353 353 354 353 353 351 348 344 346
318 317 316 316 315 316 317 318 318 322 326 330 331 330 329 330 335 341 349 352 352 352 354 353 354 353 354 354 354 353 350 347 348
315 314 314 314 314 314 316 316 316 319 322 325 329 329 328 327 331 333 337 344 350 351 353 354 355 354 354 354 355 355 353 350 349
314 313 313 312 313 314 315 315 315 317 320 322 325 326 326 326 326 328 333 336 340 347 353 353 353 354 354 355 355 355 353 352 350
313 312 312 312 312 312 313 314 314 316 317 320 323 324 324 325 326 325 328 334 336 337 345 349 354 355 355 356 357 357 355 354 351
312 312 312 312 311 311 312 313 313 314 315 316 319 322 323 323 324 325 325 328 333 335 339 345 349 351 352 354 356 358 358 356 355
311 311 311 312 313 312 312 312 313 313 314 314 316 320 321 321 321 322 324 325 327 332 334 337 341 346 350 351 353 355 357 357 356
310 310 310 310 311 310 309 309 310 312 315 316 316 318 320 319 319 320 321 322 324 324 324 328 331 335 338 341 348 353 353 354 357
307 308 309 309 308 309 309 309 309 310 311 312 317 318 317 317 318 318 318 319 321 321 321 321 321 324 325 329 331 335 343 347 351
306 306 307 307 307 306 306 306 307 308 309 309 309 311 315 315 316 317 317 318 319 320 321 321 321 322 326 328 331 332 333 338 343

GFSFLT1_925_thetae_081.txt.gz
Theta_e
352 354 352 351 351 350 348 345 346 349 352 355 355 355 355 356 356 353 350 352 349 348 350 350 358 355 353 354 353 354 354 353 352
354 347 355 353 351 349 348 347 346 349 351 355 356 355 356 356 357 356 350 348 351 349 351 351 354 351 353 353 353 354 354 353 355
352 356 355 352 353 350 350 350 347 348 351 353 356 356 356 356 356 357 355 352 351 350 350 352 351 353 354 355 353 354 354 352 353
343 346 350 350 351 352 351 351 350 350 351 352 355 356 355 355 355 356 357 355 353 352 352 353 353 356 354 356 356 355 354 352 354
339 341 340 340 342 343 346 349 350 349 350 351 353 354 356 356 355 355 355 356 355 354 353 353 352 354 356 357 355 355 356 355 350
336 337 340 337 333 334 338 342 348 348 349 352 351 353 355 356 355 355 355 354 355 354 354 354 352 353 355 357 353 355 355 356 355
333 334 334 334 333 332 333 333 337 341 345 348 350 353 353 354 355 354 355 354 354 355 355 355 355 352 353 356 355 353 355 356 354
333 334 332 330 332 331 331 332 331 332 338 343 347 352 353 354 354 354 354 355 355 354 354 355 356 355 352 354 355 354 353 354 355
330 329 328 328 329 329 328 329 330 331 332 337 340 343 347 350 352 353 356 355 355 354 354 355 356 356 355 353 352 347 349 354 356
326 325 324 324 324 324 325 325 326 329 332 333 333 334 335 340 345 350 352 354 356 356 355 355 356 357 357 356 355 351 347 346 351
325 324 324 322 320 321 322 321 322 325 329 334 332 331 330 330 335 342 346 351 353 353 356 356 355 356 357 358 357 355 352 348 346
322 321 320 320 319 319 321 320 320 322 325 327 333 332 332 330 330 334 338 343 344 351 353 352 354 355 356 355 358 357 355 353 351
319 318 318 317 317 318 319 319 319 320 321 324 326 327 329 331 331 330 333 335 340 341 348 354 355 355 352 354 356 358 357 356 354
317 317 316 316 316 317 317 318 318 320 320 322 322 324 326 327 328 330 329 330 335 336 340 347 354 356 355 354 355 355 356 356 356
316 316 316 315 315 316 316 316 317 318 319 320 320 320 323 326 326 326 328 330 331 336 338 341 346 351 352 354 353 355 357 357 355
316 315 316 315 316 316 316 317 317 317 318 318 319 319 320 322 325 325 325 325 329 331 335 339 339 345 347 351 351 353 355 355 357
315 315 314 313 314 314 314 313 313 314 314 315 317 320 320 320 322 323 322 324 324 326 329 332 334 337 338 339 340 349 353 345 347
313 312 312 311 311 311 311 311 311 311 313 313 314 315 317 320 321 321 321 322 321 323 324 326 325 325 326 328 331 333 334 330 329
311 311 310 311 310 310 309 308 308 309 310 310 311 313 313 316 317 318 319 320 320 320 320 320 320 321 321 322 322 324 326 328 329
308 309 309 309 309 308 307 307 306 306 306 307 308 309 310 312 313 315 316 317 318 319 319 319 320 320 321 321 321 322 323 327 329

GFSFLT1_925_thetae_084.txt.gz
Theta_e
348 349 355 351 351 351 351 345 347 352 357 358 356 355 355 353 351 355 353 354 353 346 348 350 354 352 355 354 352 354 354 355 349
355 357 357 354 352 351 351 347 348 351 356 358 358 357 357 358 357 355 349 347 349 348 354 349 351 353 353 353 354 353 353 351 353
347 346 355 352 351 348 352 349 349 352 356 358 358 357 358 359 360 357 354 355 351 353 355 349 350 351 354 353 354 354 353 354 351
345 344 347 350 347 343 351 351 349 351 357 358 359 359 359 358 359 359 359 356 354 350 351 355 352 340 351 353 353 352 353 351 351
343 343 340 343 344 343 340 343 350 351 351 355 358 359 359 359 359 358 359 358 357 354 352 352 352 354 355 356 354 354 353 353 352
341 341 342 340 339 339 338 337 339 344 350 351 353 358 359 359 358 359 359 359 357 357 356 355 355 352 354 356 355 354 354 353 352
337 338 339 339 338 336 336 335 335 338 343 344 349 353 346 359 358 358 358 358 359 357 357 356 356 355 355 355 355 356 355 356 355
336 334 334 334 333 332 333 334 333 334 337 338 342 346 348 349 353 357 357 357 355 357 357 357 357 357 355 356 358 357 354 355 356
333 332 331 331 332 330 330 331 332 333 334 333 336 338 339 344 349 351 353 353 354 355 356 357 358 358 358 358 355 354 353 352 351
329 328 327 327 327 327 326 327 329 332 334 332 332 332 333 336 341 345 347 351 353 354 354 354 356 358 359 359 358 355 352 350 353
328 326 325 324 324 324 323 323 325 328 332 334 333 333 332 331 331 337 341 344 345 350 352 353 354 355 357 358 359 359 358 353 352
324 323 322 321 321 323 323 322 322 323 325 329 329 330 333 334 333 331 334 338 339 341 343 349 353 354 355 356 358 359 357 358 356
321 320 320 319 319 320 321 321 321 322 323 325 325 325 328 329 330 332 333 332 334 337 339 341 344 349 353 355 353 357 357 355 357
319 319 318 318 318 319 319 319 320 321 322 323 322 322 323 326 328 328 328 331 333 333 337 339 341 344 347 351 354 356 355 355 356
318 318 318 317 318 318 318 319 319 320 321 321 321 322 322 322 324 327 327 327 329 328 334 338 341 341 344 351 350 350 350 351 352
317 318 317 317 317 319 319 317 316 317 317 317 317 318 319 323 323 323 326 326 324 328 329 332 340 342 342 342 342 338 348 345 341
317 317 316 315 315 315 315 315 314 314 313 314 314 315 317 317 318 322 322 323 324 325 324 327 331 331 330 329 328 329 335 333 331
315 315 314 313 313 313 313 312 311 311 311 312 311 312 313 315 316 317 319 321 323 323 322 321 322 323 323 323 323 324 324 323 323
313 313 312 312 312 312 311 310 310 309 308 308 309 309 310 311 312 313 315 316 318 318 319 320 319 319 320 320 320 321 322 321 321
309 311 310 310 310 310 309 309 307 307 307 307 307 307 307 308 309 310 312 314 316 317 317 317 317 318 319 320 320 321 321 319 321

GFSFLT1_925_thetae_087.txt.gz
Theta_e
346 345 345 347 344 349 347 345 351 351 354 354 349 350 348 349 350 350 350 350 350 351 346 347 351 351 351 353 349 351 353 352 349
345 343 343 342 341 348 351 345 350 352 353 353 352 354 347 349 353 352 351 352 353 349 349 350 351 350 350 353 354 352 353 352 353
348 349 351 346 347 347 348 347 351 353 354 353 352 355 352 350 350 350 352 351 351 353 352 350 346 350 351 352 353 353 351 352 351
347 346 350 350 348 345 347 347 349 354 356 356 354 352 354 353 354 353 352 352 355 354 352 351 350 349 351 352 352 353 353 352 351
343 343 342 345 345 346 346 344 344 348 348 353 356 355 357 357 358 358 356 354 353 355 353 352 353 352 341 351 353 354 354 351 352
343 340 339 339 338 339 341 342 342 342 346 348 350 354 356 357 358 358 358 357 354 353 354 354 354 352 353 353 353 352 355 354 351
340 339 339 338 337 336 335 337 340 340 344 343 346 347 352 353 353 354 357 358 358 356 356 355 354 353 353 353 354 354 355 354 353
337 334 333 333 334 334 335 335 337 337 340 342 344 342 342 339 340 349 353 354 358 357 356 357 355 354 354 355 356 354 352 354 356
334 334 332 330 331 331 332 334 335 334 336 339 337 341 343 345 340 349 351 353 354 355 355 354 357 356 356 355 354 358 357 355 354
328 328 327 326 326 327 328 332 334 334 332 333 334 332 333 336 344 342 344 346 350 352 352 354 355 355 355 355 356 355 353 354 353
325 324 323 323 323 323 323 323 329 334 334 333 333 332 333 333 332 335 338 340 341 342 346 350 352 352 353 354 355 355 356 355 352
322 320 321 323 323 321 322 322 323 326 325 324 324 324 328 330 330 331 332 331 332 335 339 341 344 349 351 352 353 354 354 354 354
320 319 319 319 321 320 319 320 322 323 323 322 322 322 322 323 328 328 329 332 332 331 331 335 338 339 343 345 349 352 352 353 354
319 318 318 318 319 319 320 320 321 322 320 319 320 321 323 322 322 324 327 326 326 326 325 332 333 339 339 339 349 349 349 352 353
318 318 318 319 320 318 317 317 317 317 317 317 317 317 318 319 321 323 322 324 326 323 324 328 329 336 341 344 336 333 339 344 344
318 317 316 317 317 316 315 314 314 313 314 313 314 313 314 315 315 318 319 321 323 323 325 324 328 328 328 328 325 324 327 333 330
317 315 314 315 314 314 313 312 311 311 310 310 310 310 311 312 312 313 315 316 316 318 319 321 321 320 321 321 320 320 320 322 321
315 314 314 313 313 313 310 310 309 308 308 308 308 309 309 309 309 309 311 312 314 315 315 316 317 317 318 318 318 319 319 320 321
314 313 313 312 312 311 310 309 307 307 307 306 306 307 307 307 307 308 309 310 310 311 312 314 316 318 318 318 318 317 319 320 321
311 311 311 311 310 309 308 308 307 306 306 306 306 306 305 306 306 305 306 306 306 306 306 308 310 312 314 315 316 317 316 316 318

GFSFLT1_925_thetae_090.txt.gz
Theta_e
349 348 347 347 347 347 347 348 351 352 349 348 348 345 348 351 350 350 349 350 350 349 350 350 351 352 354 352 350 347 348 350 350
349 347 346 346 345 345 348 347 349 351 351 349 348 345 348 351 349 349 349 349 348 348 350 345 351 350 352 351 352 347 352 352 350
348 347 345 343 343 345 346 348 347 350 352 349 348 348 345 349 347 350 347 349 352 351 351 349 350 350 350 349 353 353 351 351 349
347 346 348 349 344 346 347 346 347 350 350 351 352 350 347 347 346 349 349 347 351 351 351 350 350 348 350 349 351 353 353 351 350
344 343 344 347 346 346 346 345 347 347 349 349 350 351 350 350 346 348 349 348 351 354 353 352 350 349 348 350 351 351 353 352 351
342 342 341 340 342 344 343 343 345 345 346 347 347 350 350 348 347 347 350 352 350 352 355 351 350 351 351 345 348 350 353 354 352
341 340 340 338 337 337 340 341 342 344 346 346 345 345 346 347 350 351 351 350 353 349 351 354 353 352 352 351 352 351 352 352 353
336 336 337 336 336 336 337 339 340 342 344 346 343 342 344 341 344 349 350 351 352 354 353 353 353 354 353 353 354 353 353 353 354
333 333 332 332 333 333 334 336 338 340 341 342 342 342 342 342 343 346 346 350 352 352 353 354 354 355 355 354 354 354 354 355 354
332 328 326 326 327 331 333 334 335 336 336 336 338 339 340 342 343 342 342 344 345 348 349 352 352 352 353 354 354 355 355 354 353
326 325 322 321 321 322 328 333 333 333 333 333 333 333 333 333 335 339 339 337 337 340 340 343 347 350 352 352 353 354 354 354 353
318 319 320 320 320 321 324 329 325 323 322 322 322 323 324 328 328 329 333 332 331 330 332 335 338 340 343 348 350 350 351 352 353
316 319 320 319 319 320 321 322 321 321 319 319 319 321 322 323 323 325 326 326 327 327 324 328 331 336 339 339 344 349 349 350 352
317 318 318 319 319 318 319 318 319 317 316 316 317 317 319 320 320 321 321 323 325 325 323 326 331 334 340 339 335 336 339 343 344
316 317 318 317 316 315 315 315 315 313 313 313 314 314 314 315 316 316 318 320 322 322 323 324 322 328 329 324 323 321 320 321 326
314 316 316 315 314 313 312 312 312 310 310 311 311 311 311 312 313 313 314 315 315 316 316 316 316 317 318 318 317 318 319 319 320
312 313 314 314 312 311 310 310 310 308 308 308 308 308 308 308 308 309 310 312 312 312 312 311 312 313 313 315 317 317 317 317 320
312 313 313 313 311 310 309 309 308 307 307 306 306 306 306 307 307 307 306 306 306 307 306 308 309 310 311 311 312 313 315 316 315
313 312 312 312 310 309 309 307 306 306 305 305 305 305 305 304 304 304 305 305 305 305 305 305 306 305 306 308 309 310 312 315 317
312 312 311 310 310 309 308 307 306 306 305 304 304 304 304 303 303 303 303 304 303 303 302 301 301 301 301 303 305 305 306 309 314

GFSFLT1_925_thetae_093.txt.gz
Theta_e
348 347 348 347 346 344 346 347 349 348 348 347 346 345 346 347 349 349 347 347 348 349 348 347 350 351 350 350 351 347 346 350 348
349 348 346 347 346 347 347 347 350 348 348 347 346 345 346 348 350 350 349 348 349 349 349 349 349 350 350 349 348 350 348 348 349
347 345 345 346 346 347 347 346 348 351 349 347 346 346 346 346 350 349 349 349 349 348 348 350 349 347 350 350 351 350 347 349 350
345 346 346 344 346 346 345 346 346 349 351 350 349 348 348 345 348 349 348 348 348 350 351 350 349 349 349 351 349 351 353 351 350
345 345 347 345 345 346 345 345 347 349 350 350 350 349 349 348 346 348 347 347 348 345 350 350 350 350 348 349 349 350 351 352 352
343 343 343 346 346 346 346 346 346 346 346 346 346 347 349 350 350 351 349 346 347 348 349 350 352 351 349 348 349 350 350 350 350
340 342 341 340 341 343 343 344 346 345 344 346 345 343 344 346 347 348 349 350 349 348 350 350 352 351 350 350 350 345 347 349 351
340 340 339 339 339 339 340 341 342 345 345 345 344 343 343 342 342 345 346 348 349 347 349 352 351 351 352 352 352 351 352 352 353
338 337 337 337 336 337 338 338 339 342 342 343 343 343 342 342 342 342 342 343 345 347 348 348 350 351 352 352 353 353 353 354 354
333 332 332 333 334 335 334 335 336 336 338 340 340 340 340 341 342 341 340 341 341 341 341 342 346 349 350 351 352 352 352 353 354
327 326 323 322 323 330 332 333 333 332 332 331 332 333 333 334 336 339 339 338 339 339 339 338 338 342 345 347 349 351 351 352 351
323 321 320 319 322 325 324 323 322 322 322 323 323 323 323 326 330 332 329 331 331 326 327 332 332 334 339 340 342 348 349 350 350
320 318 318 320 321 321 321 320 320 319 318 319 318 319 319 321 323 323 323 325 325 323 324 328 330 333 342 343 339 336 336 343 345
317 317 318 319 320 318 318 318 319 316 315 314 314 315 317 318 318 318 320 322 323 323 324 334 336 332 328 327 323 326 325 322 322
317 316 315 316 314 314 315 316 316 313 312 311 312 312 313 313 314 315 316 317 317 318 318 318 317 318 317 317 316 317 317 319 322
316 314 313 313 313 312 311 312 313 311 309 309 309 310 310 310 311 312 313 314 314 314 313 313 313 313 314 314 314 315 316 316 316
314 313 312 312 311 310 308 309 309 308 308 308 307 306 307 307 307 307 308 309 308 308 309 309 309 309 310 310 310 311 312 314 316
312 312 312 311 310 309 307 307 307 306 306 306 306 306 305 304 304 304 304 305 305 305 305 305 304 304 305 306 305 304 304 306 311
311 311 311 309 309 308 307 306 306 305 305 305 304 303 302 302 303 303 303 302 301 300 301 301 300 299 300 300 299 299 300 303 308
311 311 311 310 310 309 307 306 306 305 304 304 304 302 302 302 302 301 299 299 298 297 297 297 297 297 297 297 296 297 298 298 300

GFSFLT1_925_thetae_096.txt.gz
Theta_e
349 343 345 347 345 344 345 345 346 345 344 343 344 345 344 344 344 346 348 348 347 348 348 348 347 348 350 349 349 348 347 349 349
349 347 347 347 346 345 345 345 347 347 346 344 343 345 347 345 345 346 347 347 348 348 348 348 348 348 349 349 349 349 348 345 348
348 347 345 345 344 344 345 345 346 347 347 346 345 346 346 346 348 348 348 348 348 348 347 348 348 348 347 350 349 349 350 347 348
346 347 347 346 347 346 346 345 347 350 348 347 347 346 345 345 346 349 349 348 348 349 349 349 348 348 348 348 349 350 350 350 350
345 344 344 345 346 346 346 346 347 348 348 347 347 347 346 347 346 346 349 348 347 348 348 345 348 348 349 349 349 349 349 350 350
345 345 346 343 345 345 345 345 345 346 347 346 346 347 347 349 350 349 348 348 347 346 348 348 347 346 349 348 348 348 349 349 349
344 344 345 346 345 345 345 345 345 345 346 344 343 343 345 347 347 348 348 348 348 348 347 348 349 349 350 351 349 348 348 347 348
342 343 342 342 344 343 343 345 346 345 345 345 342 343 341 341 341 342 343 345 345 346 348 349 350 351 351 351 350 350 350 350 350
340 341 340 339 340 340 341 342 344 345 344 344 343 342 342 341 341 340 341 341 342 343 344 345 346 348 350 350 350 351 352 352 352
338 338 338 338 337 336 335 337 338 338 340 341 341 340 340 341 341 340 339 340 340 339 340 340 340 341 342 345 348 349 349 351 352
332 330 328 330 333 332 326 326 328 329 333 334 333 331 333 335 336 336 336 337 337 337 337 338 337 336 339 341 343 347 348 348 349
323 323 324 325 324 322 322 322 324 325 324 323 324 324 325 326 327 328 330 331 332 334 335 335 336 336 342 337 329 330 339 344 346
320 322 324 322 321 320 320 318 321 321 318 318 317 318 319 320 321 322 323 325 324 325 328 331 334 337 330 327 326 324 323 322 325
320 321 320 320 319 317 316 317 318 315 314 313 313 315 317 317 318 319 320 321 322 325 333 335 330 324 319 319 319 319 320 321 321
316 316 315 316 315 314 315 315 316 312 311 311 312 312 313 315 316 316 317 317 317 317 319 319 316 315 314 314 314 315 316 316 317
314 313 312 313 314 312 312 312 313 311 309 309 309 310 310 310 312 313 314 315 314 314 314 313 312 312 311 311 312 313 314 315 316
313 311 311 311 311 310 309 309 309 308 308 307 307 307 306 307 308 309 309 309 309 310 309 308 307 306 306 306 307 308 309 310 313
312 311 311 311 310 309 308 307 306 306 306 306 306 305 304 304 304 305 305 305 305 305 303 303 302 301 302 301 300 298 299 300 302
312 311 311 309 308 307 306 305 305 305 305 305 304 302 302 302 303 302 301 301 300 300 299 298 298 298 297 297 296 297 297 298 299
312 311 311 311 310 309 307 305 304 304 304 304 302 301 301 301 299 298 297 297 297 297 297 296 296 296 295 295 295 296 296 297 297

GFSFLT1_925_thetae_099.txt.gz
Theta_e
351 350 347 349 349 347 349 348 348 348 348 349 347 348 349 347 347 349 347 347 351 351 351 350 348 347 347 349 348 347 346 349 352
352 351 347 348 349 349 349 346 348 349 349 348 347 347 349 347 345 345 347 346 347 349 348 350 348 347 349 347 348 349 348 348 349
351 350 348 349 347 347 346 347 346 348 349 348 348 347 349 348 348 345 346 347 347 347 348 348 348 348 348 349 348 347 347 351 349
352 350 350 350 347 346 345 346 344 347 348 348 348 346 346 347 348 349 347 348 348 348 348 348 348 348 347 347 347 349 349 349 351
351 350 349 350 348 347 345 344 344 348 350 348 348 349 347 347 345 345 349 348 347 347 347 345 346 347 347 348 348 350 351 352 352
349 349 348 349 349 348 347 345 344 345 347 348 345 346 348 346 345 346 350 351 351 348 346 345 348 347 347 347 347 347 348 348 350
348 349 349 349 348 348 348 347 346 346 345 344 342 342 344 346 345 346 350 348 347 348 347 345 348 349 349 349 349 349 348 348 350
348 348 347 348 349 348 348 348 347 346 344 345 343 341 341 343 344 346 346 347 347 347 348 348 348 349 351 351 351 350 350 350 351
346 346 345 346 346 345 345 346 346 346 345 344 344 342 341 341 341 342 343 343 344 344 345 346 346 347 348 349 351 350 350 351 353
343 343 342 342 341 339 341 343 344 344 344 343 343 342 342 340 339 339 339 339 339 339 339 340 342 344 345 343 344 346 348 349 350
339 338 337 336 330 328 330 334 336 337 340 340 340 339 339 338 338 338 337 337 337 337 337 337 340 344 339 337 338 345 347 347 348
334 331 329 327 325 324 324 326 328 328 328 331 332 332 333 334 333 334 334 334 334 333 334 336 341 338 331 328 327 331 338 340 342
329 326 325 322 322 321 322 321 321 322 320 320 321 321 322 323 324 326 326 329 328 330 332 335 333 329 325 321 320 322 322 325 327
327 324 321 320 319 317 317 318 318 318 319 317 316 316 317 318 320 321 321 322 326 329 332 330 324 319 318 319 318 319 321 322 320
321 319 317 316 315 315 314 315 315 314 313 313 313 314 315 315 316 316 317 320 323 327 323 318 318 317 315 313 312 313 315 316 316
320 318 318 317 315 314 314 314 315 314 312 311 311 312 312 313 313 314 314 315 315 316 315 315 313 314 314 310 310 311 312 313 314
320 319 317 316 315 314 313 312 311 311 310 310 310 310 310 310 311 310 310 311 311 311 311 312 312 310 309 306 304 304 304 304 305
317 316 315 315 315 313 311 310 309 308 308 309 309 308 308 308 308 308 307 306 307 304 302 305 306 305 303 303 301 298 297 299 300
314 313 313 313 313 312 310 308 307 307 307 307 307 307 306 306 305 305 305 303 300 298 298 298 298 298 299 297 296 296 297 298 298
315 313 312 312 311 311 309 308 307 307 306 305 305 305 304 303 303 302 302 302 302 300 296 295 295 295 295 295 296 296 297 297 298

GFSFLT1_925_thetae_102.txt.gz
Theta_e
351 350 350 349 349 350 351 351 351 350 351 353 353 352 353 353 350 348 347 348 352 349 351 350 353 351 352 352 351 353 354 352 349
353 351 350 349 349 351 351 351 351 351 351 352 352 351 352 351 349 349 350 351 349 351 350 353 352 353 352 353 352 353 354 351 353
353 351 349 349 349 350 350 350 352 351 351 352 351 351 351 350 350 349 347 349 348 350 349 351 354 355 354 352 352 352 353 352 352
353 352 351 350 349 350 351 351 351 349 352 353 352 351 349 349 350 349 350 350 348 351 350 349 353 351 355 354 352 353 355 354 353
352 350 351 352 349 349 351 351 348 349 348 351 352 351 351 350 347 349 348 350 349 351 350 352 352 352 350 353 352 352 354 353 351
356 353 352 351 352 350 349 347 345 344 349 352 351 352 351 351 347 347 349 350 350 351 350 351 352 353 354 351 353 349 352 353 353
355 354 353 353 353 351 351 349 346 344 343 343 349 350 351 349 349 349 349 350 352 351 353 350 350 351 353 352 351 352 351 352 353
352 352 352 352 351 351 351 350 349 347 344 345 344 345 345 349 351 351 351 351 352 353 353 350 352 352 354 354 352 350 355 355 355
351 352 351 352 351 350 350 350 349 348 347 346 344 342 342 343 341 344 350 351 352 352 353 354 354 355 355 354 352 351 350 350 354
350 349 349 350 351 350 350 350 349 349 347 345 344 341 342 341 342 343 345 346 348 350 350 351 351 352 352 345 341 346 347 349 352
346 345 342 339 337 336 337 343 346 347 345 346 345 344 342 342 340 340 340 340 340 343 345 346 348 345 341 336 337 344 347 348 354
341 339 335 331 331 328 329 333 336 341 340 340 339 339 339 338 338 338 338 337 337 339 342 343 345 340 334 328 329 336 342 346 345
334 331 328 326 323 323 323 324 327 328 327 330 329 330 332 333 335 339 340 339 335 335 340 340 334 328 322 320 320 322 332 336 338
328 325 323 322 320 319 320 320 320 320 320 320 322 323 326 326 327 329 330 330 333 336 335 333 324 320 320 321 319 321 323 322 323
322 319 318 317 317 316 317 318 319 319 318 319 320 323 324 324 324 323 326 329 330 327 326 323 322 320 317 314 313 315 316 317 318
319 318 316 315 315 315 316 317 316 316 316 319 319 320 321 321 321 321 323 326 323 323 325 325 324 323 320 314 312 310 311 312 314
319 318 317 317 316 315 315 315 315 316 316 316 317 318 318 318 318 318 319 319 320 322 322 322 321 320 318 314 309 306 306 305 308
321 319 319 318 317 315 314 313 312 313 314 315 315 315 315 315 315 315 314 310 311 310 305 311 316 314 312 312 310 301 299 300 301
317 317 318 318 317 315 313 312 312 312 312 313 313 313 313 312 313 312 311 308 303 299 299 301 302 304 305 300 298 298 298 298 299
320 317 316 316 317 316 314 313 312 311 311 311 311 311 310 309 309 310 310 308 306 302 296 296 296 297 298 299 297 297 297 298 300

GFSFLT1_925_thetae_105.txt.gz
Theta_e
344 347 350 348 348 349 349 350 350 348 352 353 353 353 353 353 353 350 349 350 352 353 353 350 354 353 352 352 354 353 354 352 349
351 351 346 348 347 349 350 349 350 350 352 353 353 353 353 353 352 352 350 347 352 354 353 352 355 352 352 352 352 353 354 352 354
355 352 349 349 348 348 347 349 350 351 351 352 351 351 350 351 351 351 351 352 352 349 352 353 354 354 354 354 354 354 354 351 352
354 353 351 350 351 350 349 350 350 351 351 353 352 351 350 349 348 348 349 348 350 351 352 352 354 355 354 353 355 355 355 356 353
353 353 351 349 348 350 354 352 352 353 356 352 351 351 351 351 350 349 347 348 349 352 353 353 354 355 354 352 354 354 355 356 351
354 355 351 349 348 351 355 355 356 354 354 353 354 353 353 353 351 350 348 347 348 350 352 353 353 353 353 354 353 353 354 355 352
354 354 354 354 353 350 352 352 352 353 351 347 347 347 353 353 353 350 350 350 348 350 353 352 352 353 353 354 353 354 352 354 354
359 358 355 354 355 355 352 352 351 349 348 347 344 344 348 349 351 352 352 352 353 349 350 350 351 351 352 352 352 350 352 353 354
355 355 355 355 354 353 353 353 352 351 350 349 346 346 347 349 350 353 353 352 353 352 352 351 351 352 353 353 351 348 349 349 354
353 355 353 354 352 352 352 352 352 351 350 348 348 347 346 346 346 343 344 349 351 352 352 352 353 352 353 352 348 347 348 349 349
350 349 351 350 348 348 348 351 351 351 350 350 348 348 345 345 342 341 342 343 345 348 349 350 350 349 346 340 335 344 346 346 352
347 344 340 337 336 337 334 339 346 349 349 348 348 347 347 346 345 343 341 341 341 342 344 345 343 342 338 332 332 341 344 348 351
339 334 332 329 327 326 325 327 332 336 335 337 337 340 340 340 341 339 339 339 338 338 340 340 340 333 328 323 323 332 338 341 345
331 327 325 323 320 321 322 323 326 323 324 325 328 330 333 334 334 336 337 337 339 336 337 334 330 326 323 322 322 323 324 331 333
324 321 320 319 319 319 319 320 320 320 321 322 324 327 328 328 327 328 331 335 332 332 329 329 327 324 322 319 316 317 317 318 320
319 317 317 317 318 319 318 316 318 318 319 320 323 324 326 327 327 329 331 332 331 329 328 328 328 328 325 321 316 314 315 315 314
319 318 317 315 316 316 316 316 316 316 317 318 320 321 322 324 324 325 327 329 329 329 329 329 329 328 326 321 316 313 309 309 311
320 319 318 318 316 315 314 315 315 314 316 317 318 318 318 319 319 322 318 314 315 315 314 314 314 323 321 318 319 308 301 302 304
317 319 318 317 315 316 314 314 312 313 314 314 314 315 316 316 317 317 315 313 307 305 305 309 310 311 309 306 306 300 299 299 300
318 316 316 318 318 315 314 314 313 312 312 312 313 313 312 312 313 314 314 312 311 307 298 297 298 300 302 303 299 298 298 300 302

GFSFLT1_925_thetae_108.txt.gz
Theta_e
345 345 346 351 347 347 349 349 347 353 356 354 352 353 354 353 353 353 352 352 351 346 340 349 353 352 353 353 354 354 354 353 349
347 348 344 347 347 347 347 352 351 350 356 356 355 354 352 353 353 353 352 349 344 346 338 349 352 353 353 352 353 354 354 352 353
350 346 347 350 349 347 345 351 348 348 355 354 355 354 353 352 353 352 353 350 348 348 344 351 349 353 352 353 353 351 352 352 353
351 347 346 352 351 351 348 346 348 351 355 355 354 354 354 354 351 352 350 351 350 352 349 353 348 352 355 354 354 354 355 353 350
351 350 352 351 350 353 352 351 353 348 354 354 353 350 351 351 349 349 350 349 350 348 353 354 352 353 354 353 354 354 355 354 353
358 356 356 353 352 348 346 347 344 350 349 352 353 353 353 351 350 352 348 349 347 348 352 353 353 354 352 353 353 353 355 354 352
358 358 356 354 353 351 347 341 338 348 345 353 350 347 350 346 351 350 349 349 350 349 350 351 352 353 352 353 350 353 354 354 354
360 359 357 355 353 354 356 350 350 355 353 351 352 351 352 352 352 353 351 351 349 349 352 352 351 352 352 353 353 352 352 353 353
360 357 355 357 357 355 355 355 353 351 350 350 350 346 344 342 344 346 350 350 351 352 352 350 350 350 351 351 352 349 347 351 352
359 358 358 358 355 354 355 354 354 352 353 351 350 349 347 347 347 346 348 347 351 352 349 348 350 351 353 353 351 348 348 348 349
354 355 351 350 351 353 353 351 352 352 352 351 349 349 349 348 347 345 344 344 345 345 347 347 350 348 344 341 338 342 342 343 346
346 340 337 335 334 334 337 340 351 351 351 350 350 349 347 347 346 343 342 343 343 344 344 344 345 343 340 335 334 339 343 346 354
334 331 329 329 328 327 330 333 342 345 346 347 347 347 346 345 345 344 342 340 341 341 342 342 341 338 336 336 329 334 338 340 346
326 326 324 322 323 323 323 327 331 328 329 330 334 340 342 342 341 341 339 339 340 338 338 336 334 332 330 325 324 325 329 333 336
323 321 321 321 320 320 321 323 325 324 325 327 329 330 332 333 335 336 336 336 337 336 334 331 330 329 324 323 320 320 324 329 330
319 318 319 319 319 318 319 320 321 321 323 325 326 327 328 327 331 332 333 332 331 331 331 330 328 327 325 322 319 316 315 315 316
318 317 317 317 317 317 316 316 317 318 320 321 322 323 324 326 327 325 329 326 328 328 322 327 329 331 327 323 319 315 314 312 312
320 319 318 314 314 315 316 315 315 316 317 319 319 319 320 320 323 322 318 314 313 313 314 315 317 317 320 321 319 314 309 305 308
319 319 318 316 316 314 314 311 312 314 315 316 316 317 317 318 320 318 316 315 310 308 308 310 313 313 314 313 312 309 303 301 301
318 318 318 317 315 313 313 314 311 311 312 313 314 314 312 312 313 318 315 314 312 309 302 300 302 306 308 306 303 300 300 300 302

GFSFLT1_925_thetae_111.txt.gz
Theta_e
344 349 348 347 346 347 348 349 352 354 353 350 346 350 351 348 350 350 349 347 343 347 346 349 350 351 352 350 353 351 354 350 352
343 347 346 348 347 348 348 348 353 355 354 350 350 352 353 351 352 351 348 348 348 347 340 345 350 351 351 352 352 353 353 352 350
342 344 343 346 346 348 349 348 352 356 353 350 349 353 353 351 351 352 351 347 344 342 337 338 346 350 353 352 351 349 352 352 351
344 343 342 341 344 347 348 350 351 353 355 353 352 355 352 351 352 351 352 347 347 347 340 347 347 347 353 353 353 352 353 352 349
348 344 342 341 346 347 346 347 349 353 352 350 355 351 354 352 348 349 351 351 350 350 342 351 346 346 351 352 352 354 352 352 353
351 349 342 349 351 347 348 348 349 349 352 353 353 351 355 352 351 349 350 348 350 349 351 352 351 352 351 352 353 353 352 354 351
351 348 343 351 349 348 348 345 347 346 350 348 352 353 352 353 351 351 351 350 346 349 352 351 350 353 353 350 351 352 354 353 353
351 348 348 350 349 347 345 342 341 342 341 342 344 351 352 351 348 350 352 350 350 350 349 351 350 352 352 350 351 351 352 353 353
355 353 352 351 350 349 342 341 342 342 337 339 348 349 348 349 347 348 349 349 351 350 350 350 349 350 351 350 350 349 347 348 353
351 350 348 352 351 353 352 344 339 347 344 345 350 348 348 346 343 344 346 346 347 349 347 346 346 349 349 350 349 348 348 347 348
342 339 336 337 339 340 346 353 348 350 348 349 349 347 347 347 345 346 345 346 346 346 346 346 347 346 346 344 343 341 342 342 344
334 333 331 331 330 331 335 341 351 350 349 350 349 348 349 348 347 345 343 342 342 344 344 345 346 344 339 335 337 338 341 346 350
328 325 324 325 326 327 330 333 342 348 349 349 349 348 347 346 344 343 342 342 342 343 343 343 341 338 336 335 330 333 336 342 347
323 322 322 322 322 323 325 329 336 333 332 334 342 347 346 346 344 342 340 339 339 341 340 339 338 337 332 327 324 327 331 336 339
320 320 320 320 320 321 323 325 328 327 328 331 334 338 339 340 341 339 339 340 339 338 338 335 332 330 324 321 320 321 325 327 328
318 318 318 318 318 318 321 322 324 324 325 327 327 328 331 332 335 334 334 336 336 333 331 331 329 325 323 322 318 316 317 318 317
317 317 317 316 315 316 316 318 320 321 322 324 326 327 326 325 324 326 326 329 329 329 328 326 327 328 323 319 316 316 315 315 315
319 317 314 315 315 316 316 316 316 318 318 317 320 321 322 322 322 319 317 318 314 312 314 316 315 317 324 319 318 316 311 308 309
317 316 315 314 314 311 311 314 315 316 316 317 317 317 319 321 319 316 315 316 314 312 307 312 311 311 312 313 313 311 308 304 302
318 317 314 313 313 313 313 310 310 313 314 314 314 313 315 315 314 317 314 313 311 308 302 303 305 309 310 309 307 304 302 301 301

GFSFLT1_925_thetae_114.txt.gz
Theta_e
342 345 345 344 344 346 346 347 349 348 346 346 347 346 348 348 348 349 347 346 340 345 348 348 347 349 348 352 350 349 353 351 351
342 343 346 345 345 345 346 347 350 349 348 348 346 346 346 346 350 349 349 346 347 343 347 346 349 349 348 351 351 352 352 352 351
341 345 346 345 346 347 346 347 349 349 347 348 348 346 348 347 349 348 349 347 347 347 347 342 350 350 348 350 352 352 352 351 351
340 345 346 345 346 347 347 348 350 351 351 350 349 347 351 350 350 351 351 350 347 344 343 337 338 346 350 351 352 351 351 352 349
340 343 344 343 346 347 348 350 352 353 352 351 349 349 352 352 350 351 350 351 347 346 343 344 347 346 350 351 353 352 351 351 352
349 343 341 342 345 346 348 349 352 354 353 352 350 349 352 352 349 352 351 350 349 348 347 347 348 346 348 349 351 350 349 349 349
344 348 341 340 345 347 347 348 349 352 352 352 352 352 352 353 351 352 349 348 350 350 348 348 348 348 348 350 350 349 350 350 351
346 347 344 347 346 346 346 346 348 349 350 349 348 350 351 352 350 349 349 350 350 349 349 350 351 350 351 349 348 348 348 348 350
342 342 341 349 346 346 343 344 344 345 349 349 348 345 348 351 349 350 349 349 348 349 349 347 348 349 350 351 349 349 347 348 350
341 341 339 338 345 344 343 343 343 342 343 341 340 347 348 349 348 348 347 349 347 347 347 347 348 347 348 348 348 348 347 347 346
339 339 336 334 333 335 337 342 342 342 342 340 344 346 345 346 347 347 346 346 346 347 347 347 346 345 345 344 343 342 340 342 342
329 330 329 330 330 333 334 338 343 343 344 343 345 344 345 347 346 346 344 343 345 345 345 346 345 345 343 337 333 337 339 344 346
325 323 323 324 326 330 335 336 344 347 347 348 347 347 347 347 346 344 344 343 342 344 344 344 344 340 332 328 333 336 337 343 343
321 321 321 322 324 324 327 332 335 335 337 336 342 347 347 346 344 343 342 341 342 343 342 338 332 330 328 329 329 332 335 342 334
320 319 319 321 321 322 326 330 331 328 329 333 338 342 343 342 342 341 340 340 340 340 338 335 330 327 324 323 323 325 328 328 334
318 318 317 318 319 320 323 325 326 326 327 332 334 334 335 334 337 338 338 338 336 335 334 332 329 326 320 318 317 315 316 322 323
317 316 316 316 316 317 317 320 322 324 326 328 328 327 327 330 330 329 329 331 330 329 329 329 327 325 322 318 315 315 315 315 314
316 315 315 315 315 316 316 317 318 318 321 323 324 323 322 322 324 325 324 321 319 320 319 318 320 326 322 318 316 314 310 311 311
316 314 313 312 313 314 314 315 316 317 317 317 319 321 320 317 316 317 318 320 318 318 318 317 313 315 321 319 317 313 311 308 305
316 315 315 314 314 313 311 312 313 314 314 315 314 315 314 316 318 315 312 310 309 308 304 307 311 314 313 314 312 308 304 303 301

GFSFLT1_925_thetae_117.txt.gz
Theta_e
343 345 344 343 343 342 343 345 345 345 345 344 345 347 347 348 347 347 347 347 346 348 347 347 347 348 350 347 351 349 349 349 350
344 344 344 344 343 344 344 346 346 345 345 345 346 346 346 347 347 347 347 347 344 344 344 347 348 348 349 348 351 351 351 352 350
343 343 345 343 343 344 345 345 347 346 345 345 344 345 346 347 347 347 348 348 345 346 344 346 346 348 349 347 350 351 352 352 351
343 343 346 344 343 344 345 346 347 347 347 346 345 346 345 346 346 347 348 348 345 347 346 345 343 347 349 347 349 351 351 351 351
341 342 343 344 344 345 345 345 346 348 348 347 345 346 346 346 347 347 349 348 348 347 344 344 338 338 345 350 350 351 351 351 350
346 343 345 343 344 346 345 346 347 348 349 348 347 347 347 347 351 349 350 349 349 348 345 343 342 347 345 349 350 351 352 349 349
344 345 343 342 343 345 347 347 349 349 350 350 349 349 348 348 350 351 350 349 349 349 347 347 344 348 347 347 348 349 350 350 349
344 345 345 346 342 345 347 348 349 351 352 351 350 350 349 349 349 351 350 350 351 349 349 349 347 347 349 349 350 349 348 347 346
340 342 344 344 344 345 346 347 347 350 350 350 351 351 350 349 350 352 351 350 350 350 349 347 348 348 350 350 348 348 347 346 346
340 340 339 340 341 340 342 342 342 343 346 348 348 349 349 349 350 349 348 347 348 348 347 345 347 346 347 347 348 348 347 347 346
333 329 334 334 335 337 341 342 342 342 342 343 344 346 346 347 348 348 347 346 347 347 346 345 346 346 345 344 343 344 341 341 344
327 327 326 328 329 330 333 339 343 344 343 343 341 344 345 347 347 347 347 346 346 345 346 346 346 345 344 343 343 340 337 341 343
324 323 323 323 326 328 331 337 340 343 344 345 345 344 344 345 345 346 345 343 342 342 344 344 344 343 342 342 337 336 336 340 343
321 321 321 323 324 325 327 331 338 339 341 343 336 341 345 345 345 344 343 343 342 343 342 341 339 336 329 327 327 331 338 341 339
320 320 320 322 322 323 326 329 331 330 330 333 339 341 343 342 342 342 341 341 341 340 338 333 328 324 321 319 323 327 333 333 331
318 318 318 319 322 322 324 326 329 329 328 330 331 336 336 335 339 340 339 339 337 334 332 330 324 321 319 318 317 320 325 328 328
316 316 316 317 317 318 319 321 324 326 327 327 330 330 328 329 331 329 331 332 331 330 330 329 326 323 320 317 315 315 315 320 320
316 315 315 315 316 316 316 317 318 320 323 324 323 323 324 325 325 326 325 325 323 322 321 322 323 322 320 317 315 313 314 314 314
314 314 313 313 313 313 314 314 315 316 317 320 320 317 316 317 319 321 321 320 319 321 321 318 321 322 320 317 316 314 309 307 307
314 314 312 312 311 310 312 313 313 313 314 314 315 313 313 318 314 312 310 310 311 311 313 317 318 318 315 315 314 312 309 304 303

GFSFLT1_925_thetae_120.txt.gz
Theta_e
343 340 341 341 341 341 342 343 344 344 343 343 344 347 348 347 347 347 346 346 347 346 347 347 347 348 348 348 347 350 349 349 349
344 343 342 342 341 341 341 342 344 344 343 344 343 346 348 347 347 347 347 347 347 346 346 347 347 346 347 349 348 350 350 349 350
343 344 342 342 341 341 341 343 344 344 344 344 343 343 345 347 347 347 347 346 347 346 344 342 346 347 348 349 348 350 350 351 351
340 344 343 343 342 342 342 343 344 344 344 344 344 343 344 346 346 347 347 347 347 347 345 344 345 345 345 348 348 349 350 351 351
339 343 344 343 342 342 343 344 345 345 345 345 344 343 344 344 344 346 346 346 347 347 345 346 342 343 345 345 349 349 350 349 350
341 344 345 344 342 343 343 344 345 346 346 345 345 344 344 344 345 345 345 346 347 347 347 344 344 337 337 340 348 350 350 349 350
343 343 345 342 343 343 344 345 345 346 347 345 346 345 345 344 345 345 346 347 348 349 348 347 345 341 346 345 346 348 349 349 349
344 346 346 343 343 343 344 345 345 345 346 348 348 347 346 345 345 346 346 348 348 348 348 348 347 346 344 348 348 347 347 349 348
341 342 343 346 344 345 346 347 347 349 350 349 349 348 348 348 348 347 347 349 350 349 349 349 348 348 346 349 348 348 347 345 346
336 336 337 341 342 342 342 343 345 345 347 349 349 349 349 349 349 349 348 347 350 349 350 349 346 344 345 346 347 347 346 346 345
331 331 332 331 331 332 338 341 342 343 344 346 346 346 347 347 348 349 347 346 346 347 347 347 344 344 344 344 344 343 342 340 342
327 326 325 325 326 329 332 335 340 342 342 343 344 343 343 344 343 344 345 346 345 346 346 345 346 345 344 345 343 341 341 339 341
324 323 323 324 326 327 328 332 338 342 343 344 344 344 342 342 341 345 345 345 345 345 344 343 343 343 343 340 341 342 342 340 339
321 321 322 324 325 325 327 331 339 342 342 340 342 339 337 343 344 344 344 343 342 342 343 342 341 340 337 334 334 339 340 337 338
319 319 319 321 322 323 327 329 330 330 330 332 336 337 342 342 342 342 342 342 341 340 338 336 331 323 318 321 325 331 337 338 337
317 317 318 319 319 319 323 326 328 327 326 329 334 336 336 338 340 339 339 339 338 337 333 330 322 318 317 316 318 324 330 328 325
316 316 316 317 317 317 317 321 323 324 326 326 327 326 325 325 326 331 330 331 332 329 327 325 322 319 316 314 316 317 318 324 323
314 314 315 315 314 314 314 316 319 322 323 324 323 323 321 322 321 323 322 322 322 323 321 323 322 320 317 314 312 312 313 313 315
314 313 313 313 313 314 314 314 315 316 320 318 317 315 315 317 318 320 320 320 318 319 320 321 323 322 318 317 315 308 307 308 306
313 311 311 310 310 311 312 312 312 312 313 314 312 313 316 313 311 310 308 308 310 312 311 315 316 320 320 320 320 316 314 312 308